| time (UTC) | temp F | wind direction | speed MPH | gust MPH | rain 1hr in | rain 24hr in | rain mn in | humidity % | barometer mb |
| 20260506023103 | 50 | 29 | 0.0 | 1.0 | 0.07 | 0.38 | 0.07 | 99 | 1016.7 |
| 20260506023003 | 50 | 29 | 0.0 | 1.0 | 0.07 | 0.38 | 0.07 | 99 | 1016.6 |
| 20260506022903 | 50 | 29 | 0.0 | 1.0 | 0.07 | 0.38 | 0.07 | 99 | 1016.7 |
| 20260506022803 | 50 | 29 | 0.0 | 1.0 | 0.06 | 0.37 | 0.06 | 99 | 1016.6 |
| 20260506022704 | 50 | 0 | 0.0 | 0.0 | 0.06 | 0.37 | 0.06 | 99 | 1016.6 |
| 20260506022603 | 50 | 0 | 0.0 | 0.0 | 0.06 | 0.37 | 0.06 | 99 | 1016.4 |
| 20260506022503 | 50 | 0 | 0.0 | 0.0 | 0.06 | 0.37 | 0.06 | 99 | 1016.4 |
| 20260506022424 | 50 | 0 | 0.0 | 0.0 | 0.06 | 0.37 | 0.06 | 99 | 1016.4 |
| 20260506022324 | 50 | 0 | 0.0 | 0.0 | 0.06 | 0.37 | 0.06 | 99 | 1016.7 |
| 20260506022203 | 50 | 0 | 0.0 | 0.0 | 0.06 | 0.37 | 0.06 | 99 | 1016.6 |
| 20260506022124 | 50 | 0 | 0.0 | 0.0 | 0.06 | 0.37 | 0.06 | 99 | 1016.6 |
| 20260506022003 | 50 | 0 | 0.0 | 0.0 | 0.05 | 0.36 | 0.06 | 99 | 1016.5 |
| 20260506021925 | 50 | 0 | 0.0 | 0.0 | 0.05 | 0.36 | 0.05 | 99 | 1016.6 |
| 20260506021803 | 50 | 0 | 0.0 | 0.0 | 0.05 | 0.36 | 0.05 | 99 | 1016.5 |
| 20260506021703 | 50 | 0 | 0.0 | 0.0 | 0.05 | 0.36 | 0.05 | 99 | 1016.6 |
| 20260506021603 | 50 | 0 | 0.0 | 0.0 | 0.05 | 0.36 | 0.05 | 99 | 1016.6 |
| 20260506021503 | 50 | 0 | 0.0 | 0.0 | 0.05 | 0.36 | 0.05 | 99 | 1016.8 |
| 20260506021303 | 50 | 0 | 0.0 | 0.0 | 0.04 | 0.35 | 0.04 | 99 | 1016.8 |
| 20260506021203 | 50 | 0 | 0.0 | 0.0 | 0.04 | 0.35 | 0.04 | 99 | 1016.7 |
| 20260506021103 | 50 | 0 | 0.0 | 0.0 | 0.04 | 0.35 | 0.04 | 99 | 1016.7 |
| 20260506021003 | 50 | 0 | 0.0 | 0.0 | 0.04 | 0.35 | 0.04 | 99 | 1016.8 |
| 20260506020924 | 50 | 0 | 0.0 | 0.0 | 0.04 | 0.35 | 0.04 | 99 | 1016.8 |
| 20260506020803 | 50 | 0 | 0.0 | 0.0 | 0.04 | 0.35 | 0.04 | 99 | 1016.8 |
| 20260506020703 | 50 | 0 | 0.0 | 0.0 | 0.04 | 0.35 | 0.04 | 99 | 1016.8 |
| 20260506020603 | 50 | 0 | 0.0 | 0.0 | 0.04 | 0.35 | 0.04 | 99 | 1016.9 |
| 20260506020503 | 50 | 0 | 0.0 | 0.0 | 0.04 | 0.35 | 0.04 | 99 | 1016.8 |
| 20260506020403 | 50 | 0 | 0.0 | 0.0 | 0.03 | 0.34 | 0.04 | 99 | 1016.9 |
| 20260506020303 | 50 | 0 | 0.0 | 0.0 | 0.03 | 0.34 | 0.03 | 99 | 1016.9 |
| 20260506020203 | 50 | 0 | 0.0 | 0.0 | 0.03 | 0.34 | 0.03 | 99 | 1016.7 |
| 20260506020103 | 49 | 0 | 0.0 | 0.0 | 0.03 | 0.34 | 0.03 | 99 | 1016.8 |
| 20260506020004 | 49 | 0 | 0.0 | 0.0 | 0.03 | 0.34 | 0.03 | 99 | 1016.7 |
| 20260506015903 | 49 | 0 | 0.0 | 0.0 | 0.03 | 0.34 | 0.03 | 99 | 1016.8 |
| 20260506015803 | 49 | 0 | 0.0 | 0.0 | 0.03 | 0.34 | 0.03 | 99 | 1016.9 |
| 20260506015703 | 49 | 0 | 0.0 | 0.0 | 0.03 | 0.34 | 0.03 | 99 | 1016.9 |
| 20260506015603 | 49 | 0 | 0.0 | 0.0 | 0.02 | 0.33 | 0.02 | 99 | 1016.8 |
| 20260506015503 | 49 | 0 | 0.0 | 0.0 | 0.02 | 0.33 | 0.02 | 99 | 1017.0 |
| 20260506015403 | 49 | 0 | 0.0 | 0.0 | 0.01 | 0.32 | 0.01 | 99 | 1016.9 |
| 20260506015324 | 49 | 0 | 0.0 | 0.0 | 0.01 | 0.32 | 0.01 | 99 | 1016.9 |
| 20260506015203 | 49 | 0 | 0.0 | 0.0 | 0.01 | 0.32 | 0.01 | 99 | 1017.1 |
| 20260506015103 | 49 | 0 | 0.0 | 0.0 | 0.01 | 0.32 | 0.01 | 99 | 1017.1 |
| 20260506015003 | 49 | 0 | 0.0 | 0.0 | 0.00 | 0.31 | 0.00 | 99 | 1016.9 |
| 20260506014903 | 49 | 0 | 0.0 | 0.0 | 0.00 | 0.31 | 0.00 | 99 | 1016.8 |
| 20260506014803 | 49 | 0 | 0.0 | 0.0 | 0.00 | 0.31 | 0.00 | 99 | 1017.0 |
| 20260506014703 | 49 | 0 | 0.0 | 0.0 | 0.00 | 0.31 | 0.00 | 99 | 1016.9 |
| 20260506014603 | 49 | 0 | 0.0 | 0.0 | 0.00 | 0.31 | 0.00 | 99 | 1016.9 |
| 20260506014525 | 49 | 0 | 0.0 | 0.0 | 0.00 | 0.31 | 0.00 | 99 | 1016.8 |
| 20260506014403 | 49 | 0 | 0.0 | 0.0 | 0.00 | 0.31 | 0.00 | 99 | 1016.9 |
| 20260506014303 | 49 | 0 | 0.0 | 0.0 | 0.00 | 0.31 | 0.00 | 99 | 1016.8 |
| 20260506014203 | 49 | 0 | 0.0 | 0.0 | 0.00 | 0.31 | 0.00 | 99 | 1017.0 |
| 20260506014103 | 49 | 0 | 0.0 | 0.0 | 0.00 | 0.31 | 0.00 | 99 | 1016.8 |
| 20260506014003 | 49 | 0 | 0.0 | 0.0 | 0.00 | 0.31 | 0.00 | 99 | 1016.8 |
| 20260506013924 | 49 | 0 | 0.0 | 0.0 | 0.00 | 0.31 | 0.00 | 99 | 1016.9 |
| 20260506013824 | 49 | 0 | 0.0 | 0.0 | 0.00 | 0.31 | 0.00 | 99 | 1016.9 |
| 20260506013703 | 49 | 0 | 0.0 | 0.0 | 0.00 | 0.31 | 0.00 | 99 | 1016.8 |
| 20260506013603 | 49 | 0 | 0.0 | 0.0 | 0.00 | 0.31 | 0.00 | 99 | 1016.8 |
| 20260506013524 | 49 | 0 | 0.0 | 0.0 | 0.00 | 0.31 | 0.00 | 99 | 1016.8 |
| 20260506013403 | 49 | 0 | 0.0 | 0.0 | 0.00 | 0.31 | 0.00 | 99 | 1016.8 |
| 20260506013324 | 49 | 0 | 0.0 | 0.0 | 0.00 | 0.31 | 0.00 | 99 | 1016.8 |
| 20260506013203 | 49 | 0 | 0.0 | 0.0 | 0.00 | 0.31 | 0.00 | 99 | 1016.9 |
| 20260506013103 | 49 | 0 | 0.0 | 0.0 | 0.00 | 0.31 | 0.00 | 99 | 1016.9 |
| 20260506013003 | 49 | 0 | 0.0 | 0.0 | 0.00 | 0.31 | 0.00 | 99 | 1016.8 |
| 20260506012903 | 49 | 0 | 0.0 | 0.0 | 0.00 | 0.31 | 0.00 | 99 | 1017.0 |
| 20260506012803 | 49 | 0 | 0.0 | 0.0 | 0.00 | 0.31 | 0.00 | 99 | 1016.9 |
| 20260506012703 | 49 | 0 | 0.0 | 0.0 | 0.00 | 0.31 | 0.00 | 99 | 1017.0 |
| 20260506012603 | 49 | 0 | 0.0 | 0.0 | 0.00 | 0.31 | 0.00 | 99 | 1017.1 |
| 20260506012503 | 49 | 0 | 0.0 | 0.0 | 0.00 | 0.31 | 0.00 | 99 | 1016.9 |
| 20260506012403 | 49 | 0 | 0.0 | 0.0 | 0.00 | 0.31 | 0.00 | 99 | 1017.0 |
| 20260506012307 | 49 | 0 | 0.0 | 0.0 | 0.00 | 0.31 | 0.00 | 99 | 1017.1 |
| 20260506012204 | 49 | 0 | 0.0 | 0.0 | 0.00 | 0.31 | 0.00 | 99 | 1017.1 |
| 20260506012103 | 49 | 0 | 0.0 | 0.0 | 0.00 | 0.31 | 0.00 | 99 | 1017.2 |
| 20260506012003 | 49 | 0 | 0.0 | 0.0 | 0.00 | 0.31 | 0.00 | 99 | 1017.1 |
| 20260506011903 | 49 | 0 | 0.0 | 0.0 | 0.00 | 0.31 | 0.00 | 99 | 1017.0 |
| 20260506011803 | 49 | 0 | 0.0 | 0.0 | 0.00 | 0.31 | 0.00 | 99 | 1017.1 |
| 20260506011703 | 49 | 0 | 0.0 | 0.0 | 0.00 | 0.31 | 0.00 | 99 | 1017.2 |
| 20260506011624 | 49 | 0 | 0.0 | 0.0 | 0.00 | 0.31 | 0.00 | 99 | 1017.2 |
| 20260506011503 | 49 | 0 | 0.0 | 0.0 | 0.00 | 0.31 | 0.00 | 99 | 1017.1 |
| 20260506011403 | 49 | 0 | 0.0 | 0.0 | 0.00 | 0.31 | 0.00 | 99 | 1017.0 |
| 20260506011303 | 49 | 0 | 0.0 | 0.0 | 0.00 | 0.31 | 0.00 | 99 | 1017.2 |
| 20260506011203 | 49 | 0 | 0.0 | 0.0 | 0.00 | 0.31 | 0.00 | 99 | 1017.2 |
| 20260506011103 | 49 | 0 | 0.0 | 0.0 | 0.00 | 0.31 | 0.00 | 99 | 1017.1 |
| 20260506011025 | 49 | 0 | 0.0 | 0.0 | 0.00 | 0.31 | 0.00 | 99 | 1017.1 |
| 20260506010903 | 49 | 0 | 0.0 | 0.0 | 0.00 | 0.31 | 0.00 | 99 | 1017.2 |
| 20260506010803 | 49 | 0 | 0.0 | 0.0 | 0.00 | 0.31 | 0.00 | 99 | 1017.2 |
| 20260506010703 | 49 | 0 | 0.0 | 0.0 | 0.00 | 0.31 | 0.00 | 99 | 1017.3 |
| 20260506010603 | 49 | 0 | 0.0 | 0.0 | 0.00 | 0.31 | 0.00 | 98 | 1017.1 |
| 20260506010503 | 49 | 0 | 0.0 | 0.0 | 0.00 | 0.31 | 0.00 | 98 | 1017.0 |
| 20260506010403 | 49 | 0 | 0.0 | 0.0 | 0.00 | 0.31 | 0.00 | 98 | 1017.1 |
| 20260506010303 | 49 | 0 | 0.0 | 0.0 | 0.00 | 0.31 | 0.00 | 98 | 1017.1 |
| 20260506010203 | 49 | 0 | 0.0 | 0.0 | 0.00 | 0.31 | 0.00 | 98 | 1017.2 |
| 20260506010103 | 49 | 0 | 0.0 | 0.0 | 0.00 | 0.31 | 0.00 | 98 | 1017.1 |
| 20260506010003 | 49 | 0 | 0.0 | 0.0 | 0.00 | 0.31 | 0.00 | 98 | 1017.1 |
| 20260506005903 | 49 | 0 | 0.0 | 0.0 | 0.00 | 0.31 | 0.00 | 98 | 1017.1 |
| 20260506005824 | 49 | 0 | 0.0 | 0.0 | 0.00 | 0.31 | 0.00 | 98 | 1017.0 |
| 20260506005703 | 49 | 0 | 0.0 | 0.0 | 0.00 | 0.31 | 0.00 | 98 | 1017.2 |
| 20260506005624 | 49 | 0 | 0.0 | 0.0 | 0.00 | 0.31 | 0.00 | 98 | 1017.2 |
| 20260506005503 | 49 | 29 | 0.0 | 1.0 | 0.00 | 0.31 | 0.00 | 98 | 1017.3 |
| 20260506005403 | 49 | 30 | 0.0 | 1.0 | 0.00 | 0.31 | 0.00 | 98 | 1017.2 |
| 20260506005306 | 49 | 30 | 0.0 | 1.0 | 0.00 | 0.31 | 0.00 | 98 | 1017.1 |
| 20260506005203 | 49 | 30 | 0.0 | 1.0 | 0.00 | 0.31 | 0.00 | 98 | 1017.1 |
| 20260506005125 | 49 | 30 | 0.0 | 1.0 | 0.00 | 0.31 | 0.00 | 98 | 1017.1 |
| 20260506005003 | 49 | 30 | 0.0 | 1.0 | 0.00 | 0.31 | 0.00 | 98 | 1017.3 |
| 20260506004904 | 49 | 30 | 0.0 | 1.0 | 0.00 | 0.31 | 0.00 | 98 | 1017.3 |
| 20260506004803 | 50 | 30 | 0.0 | 1.0 | 0.00 | 0.31 | 0.00 | 98 | 1017.3 |
| 20260506004703 | 50 | 30 | 0.0 | 1.0 | 0.00 | 0.31 | 0.00 | 98 | 1017.1 |
| 20260506004625 | 50 | 30 | 0.0 | 1.0 | 0.00 | 0.31 | 0.00 | 98 | 1017.1 |
| 20260506004524 | 49 | 30 | 0.0 | 1.0 | 0.00 | 0.31 | 0.00 | 98 | 1017.3 |
| 20260506004403 | 49 | 0 | 0.0 | 0.0 | 0.00 | 0.31 | 0.00 | 98 | 1017.4 |
| 20260506004303 | 49 | 0 | 0.0 | 0.0 | 0.00 | 0.31 | 0.00 | 98 | 1017.3 |
| 20260506004224 | 49 | 0 | 0.0 | 0.0 | 0.00 | 0.31 | 0.00 | 98 | 1017.3 |
| 20260506004103 | 49 | 0 | 0.0 | 0.0 | 0.00 | 0.31 | 0.00 | 98 | 1017.3 |
| 20260506004003 | 49 | 0 | 0.0 | 0.0 | 0.00 | 0.31 | 0.00 | 98 | 1017.2 |
| 20260506003903 | 49 | 0 | 0.0 | 0.0 | 0.00 | 0.31 | 0.00 | 98 | 1017.2 |
| 20260506003804 | 49 | 0 | 0.0 | 0.0 | 0.00 | 0.31 | 0.00 | 98 | 1017.3 |
| 20260506003703 | 49 | 0 | 0.0 | 0.0 | 0.00 | 0.31 | 0.00 | 98 | 1017.4 |
| 20260506003624 | 49 | 0 | 0.0 | 0.0 | 0.00 | 0.31 | 0.00 | 98 | 1017.4 |
| 20260506003504 | 49 | 0 | 0.0 | 0.0 | 0.00 | 0.31 | 0.00 | 98 | 1017.3 |
| 20260506003403 | 49 | 0 | 0.0 | 0.0 | 0.00 | 0.31 | 0.00 | 98 | 1017.5 |
| 20260506003302 | 49 | 0 | 0.0 | 0.0 | 0.00 | 0.31 | 0.00 | 98 | 1017.4 |
| 20260506003202 | 49 | 0 | 0.0 | 0.0 | 0.00 | 0.31 | 0.00 | 98 | 1017.8 |
| 20260506003124 | 49 | 0 | 0.0 | 0.0 | 0.00 | 0.31 | 0.00 | 98 | 1017.8 |
| 20260506003002 | 49 | 0 | 0.0 | 0.0 | 0.00 | 0.31 | 0.00 | 98 | 1017.6 |
| 20260506002903 | 49 | 0 | 0.0 | 0.0 | 0.00 | 0.31 | 0.00 | 98 | 1017.5 |
| 20260506002802 | 49 | 0 | 0.0 | 0.0 | 0.00 | 0.31 | 0.00 | 98 | 1017.7 |
| 20260506002724 | 49 | 0 | 0.0 | 0.0 | 0.00 | 0.31 | 0.00 | 98 | 1017.7 |
| 20260506002603 | 49 | 0 | 0.0 | 0.0 | 0.00 | 0.31 | 0.00 | 98 | 1017.6 |
| 20260506002503 | 49 | 0 | 0.0 | 0.0 | 0.00 | 0.31 | 0.00 | 98 | 1017.6 |
| 20260506002403 | 49 | 0 | 0.0 | 0.0 | 0.00 | 0.31 | 0.00 | 98 | 1017.5 |
| 20260506002323 | 49 | 0 | 0.0 | 0.0 | 0.00 | 0.31 | 0.00 | 98 | 1017.5 |
| 20260506002203 | 49 | 0 | 0.0 | 0.0 | 0.00 | 0.31 | 0.00 | 98 | 1017.5 |
| 20260506002102 | 49 | 0 | 0.0 | 0.0 | 0.00 | 0.31 | 0.00 | 98 | 1017.5 |
| 20260506002002 | 49 | 0 | 0.0 | 0.0 | 0.00 | 0.31 | 0.00 | 98 | 1017.4 |
| 20260506001902 | 49 | 0 | 0.0 | 0.0 | 0.00 | 0.31 | 0.00 | 98 | 1017.7 |
| 20260506001803 | 49 | 0 | 0.0 | 0.0 | 0.00 | 0.31 | 0.00 | 98 | 1017.5 |
| 20260506001702 | 49 | 0 | 0.0 | 0.0 | 0.00 | 0.31 | 0.00 | 98 | 1017.5 |
| 20260506001603 | 50 | 0 | 0.0 | 0.0 | 0.00 | 0.31 | 0.00 | 98 | 1017.7 |
| 20260506001503 | 50 | 29 | 0.0 | 1.0 | 0.00 | 0.31 | 0.00 | 98 | 1017.6 |
| 20260506001403 | 50 | 29 | 0.0 | 1.0 | 0.00 | 0.31 | 0.00 | 98 | 1017.6 |
| 20260506001303 | 50 | 29 | 0.0 | 1.0 | 0.00 | 0.31 | 0.00 | 98 | 1017.6 |
| 20260506001203 | 50 | 29 | 0.0 | 1.0 | 0.00 | 0.31 | 0.00 | 98 | 1017.6 |
| 20260506001103 | 50 | 29 | 0.0 | 1.0 | 0.00 | 0.31 | 0.00 | 98 | 1017.6 |
| 20260506001003 | 50 | 29 | 0.0 | 1.0 | 0.00 | 0.31 | 0.00 | 98 | 1017.6 |
| 20260506000903 | 50 | 29 | 0.0 | 1.0 | 0.00 | 0.31 | 0.00 | 98 | 1017.5 |
| 20260506000803 | 50 | 29 | 0.0 | 1.0 | 0.00 | 0.31 | 0.00 | 98 | 1017.4 |
| 20260506000703 | 50 | 29 | 0.0 | 1.0 | 0.00 | 0.31 | 0.00 | 98 | 1017.6 |
| 20260506000603 | 50 | 29 | 0.0 | 1.0 | 0.00 | 0.31 | 0.00 | 98 | 1017.6 |
| 20260506000503 | 50 | 29 | 0.0 | 1.0 | 0.00 | 0.31 | 0.00 | 98 | 1017.7 |
| 20260506000403 | 50 | 29 | 0.0 | 1.0 | 0.00 | 0.31 | 0.00 | 98 | 1017.6 |
| 20260506000303 | 50 | 29 | 0.0 | 1.0 | 0.00 | 0.31 | 0.00 | 98 | 1017.7 |
| 20260506000204 | 50 | 30 | 0.0 | 1.0 | 0.00 | 0.31 | 0.00 | 98 | 1017.6 |
| 20260506000002 | 50 | 29 | 0.0 | 1.0 | 0.00 | 0.31 | 0.00 | 98 | 1017.6 |
| 20260505235903 | 50 | 29 | 0.0 | 1.0 | 0.00 | 0.31 | 0.00 | 98 | 1017.6 |
| 20260505235803 | 50 | 29 | 0.0 | 1.0 | 0.00 | 0.31 | 0.00 | 98 | 1017.6 |
| 20260505235703 | 50 | 30 | 0.0 | 1.0 | 0.00 | 0.31 | 0.00 | 98 | 1017.7 |
| 20260505235624 | 50 | 30 | 0.0 | 1.0 | 0.00 | 0.31 | 0.00 | 98 | 1017.7 |
| 20260505235503 | 50 | 30 | 0.0 | 1.0 | 0.00 | 0.31 | 0.00 | 98 | 1017.7 |
| 20260505235403 | 50 | 30 | 0.0 | 1.0 | 0.00 | 0.31 | 0.00 | 98 | 1017.6 |
| 20260505235305 | 50 | 19 | 0.0 | 1.0 | 0.00 | 0.31 | 0.00 | 98 | 1017.5 |
| 20260505235203 | 50 | 20 | 0.0 | 1.0 | 0.00 | 0.31 | 0.00 | 98 | 1017.6 |
| 20260505235102 | 50 | 20 | 0.0 | 1.0 | 0.00 | 0.31 | 0.00 | 98 | 1017.6 |
| 20260505235024 | 50 | 21 | 0.0 | 1.0 | 0.00 | 0.31 | 0.00 | 98 | 1017.7 |
| 20260505234902 | 50 | 20 | 0.0 | 1.0 | 0.00 | 0.31 | 0.00 | 98 | 1017.7 |
| 20260505234824 | 50 | 20 | 0.0 | 1.0 | 0.00 | 0.31 | 0.00 | 98 | 1017.6 |
| 20260505234703 | 50 | 20 | 0.0 | 1.0 | 0.00 | 0.31 | 0.00 | 98 | 1017.8 |
| 20260505234602 | 50 | 18 | 0.0 | 1.0 | 0.00 | 0.31 | 0.00 | 98 | 1017.6 |
| 20260505234503 | 50 | 16 | 0.0 | 1.0 | 0.00 | 0.31 | 0.00 | 98 | 1017.7 |
| 20260505234424 | 50 | 11 | 0.0 | 1.0 | 0.00 | 0.31 | 0.00 | 98 | 1017.6 |
| 20260505234302 | 50 | 29 | 0.0 | 1.0 | 0.00 | 0.31 | 0.00 | 98 | 1017.6 |
| 20260505234202 | 50 | 29 | 0.0 | 1.0 | 0.00 | 0.31 | 0.00 | 98 | 1017.5 |
| 20260505234102 | 50 | 29 | 0.0 | 1.0 | 0.00 | 0.31 | 0.00 | 98 | 1017.6 |
| 20260505234003 | 50 | 0 | 0.0 | 0.0 | 0.00 | 0.31 | 0.00 | 98 | 1017.6 |
| 20260505233903 | 50 | 0 | 0.0 | 0.0 | 0.00 | 0.31 | 0.00 | 98 | 1017.6 |
| 20260505233802 | 50 | 0 | 0.0 | 0.0 | 0.00 | 0.31 | 0.00 | 98 | 1017.6 |
| 20260505233703 | 50 | 0 | 0.0 | 0.0 | 0.00 | 0.31 | 0.00 | 98 | 1017.6 |
| 20260505233603 | 50 | 0 | 0.0 | 0.0 | 0.00 | 0.31 | 0.00 | 98 | 1017.6 |
| 20260505233502 | 50 | 0 | 0.0 | 0.0 | 0.00 | 0.31 | 0.00 | 98 | 1017.7 |
| 20260505233403 | 50 | 0 | 0.0 | 0.0 | 0.00 | 0.31 | 0.00 | 98 | 1017.6 |
| 20260505233303 | 50 | 0 | 0.0 | 0.0 | 0.00 | 0.31 | 0.00 | 98 | 1017.6 |
| 20260505233202 | 50 | 0 | 0.0 | 0.0 | 0.00 | 0.31 | 0.00 | 98 | 1017.6 |
| 20260505233102 | 50 | 29 | 0.0 | 1.0 | 0.00 | 0.31 | 0.00 | 98 | 1017.5 |
| 20260505233002 | 50 | 29 | 0.0 | 1.0 | 0.00 | 0.31 | 0.00 | 98 | 1017.7 |
| 20260505232902 | 50 | 29 | 0.0 | 1.0 | 0.00 | 0.31 | 0.00 | 98 | 1017.7 |
| 20260505232803 | 50 | 29 | 0.0 | 1.0 | 0.00 | 0.31 | 0.00 | 98 | 1017.5 |
| 20260505232703 | 50 | 29 | 0.0 | 1.0 | 0.00 | 0.31 | 0.00 | 97 | 1017.7 |
| 20260505232602 | 50 | 29 | 0.0 | 1.0 | 0.00 | 0.31 | 0.00 | 97 | 1017.7 |
| 20260505232502 | 50 | 29 | 0.0 | 1.0 | 0.00 | 0.31 | 0.00 | 97 | 1017.6 |
| 20260505232402 | 50 | 29 | 0.0 | 1.0 | 0.00 | 0.31 | 0.00 | 97 | 1017.6 |
| 20260505232324 | 50 | 29 | 0.0 | 1.0 | 0.00 | 0.31 | 0.00 | 97 | 1017.6 |
| 20260505232202 | 50 | 29 | 0.0 | 1.0 | 0.00 | 0.31 | 0.00 | 97 | 1017.7 |
| 20260505232103 | 50 | 29 | 0.0 | 1.0 | 0.00 | 0.31 | 0.00 | 97 | 1017.7 |
| 20260505232002 | 50 | 29 | 0.0 | 1.0 | 0.00 | 0.31 | 0.00 | 97 | 1017.6 |
| 20260505231903 | 50 | 29 | 0.0 | 1.0 | 0.00 | 0.31 | 0.00 | 97 | 1017.6 |
| 20260505231803 | 50 | 29 | 0.0 | 1.0 | 0.00 | 0.31 | 0.00 | 97 | 1017.5 |
| 20260505231703 | 50 | 29 | 0.0 | 1.0 | 0.00 | 0.31 | 0.00 | 97 | 1017.7 |
| 20260505231624 | 50 | 29 | 0.0 | 1.0 | 0.00 | 0.31 | 0.00 | 97 | 1017.7 |
| 20260505231503 | 50 | 29 | 0.0 | 1.0 | 0.00 | 0.31 | 0.00 | 97 | 1017.6 |
| 20260505231403 | 50 | 29 | 0.0 | 1.0 | 0.00 | 0.31 | 0.00 | 97 | 1017.6 |
| 20260505231324 | 50 | 29 | 0.0 | 1.0 | 0.00 | 0.31 | 0.00 | 97 | 1017.6 |
| 20260505231203 | 50 | 29 | 0.0 | 1.0 | 0.00 | 0.31 | 0.00 | 97 | 1017.7 |
| 20260505231102 | 50 | 29 | 0.0 | 1.0 | 0.00 | 0.31 | 0.00 | 97 | 1017.8 |
| 20260505231024 | 50 | 29 | 0.0 | 1.0 | 0.00 | 0.31 | 0.00 | 97 | 1017.8 |
| 20260505230903 | 50 | 29 | 0.0 | 1.0 | 0.00 | 0.31 | 0.00 | 97 | 1017.7 |
| 20260505230803 | 50 | 29 | 0.0 | 1.0 | 0.00 | 0.31 | 0.00 | 97 | 1017.8 |
| 20260505230702 | 50 | 29 | 0.0 | 1.0 | 0.00 | 0.31 | 0.00 | 97 | 1017.7 |
| 20260505230602 | 50 | 29 | 0.0 | 1.0 | 0.00 | 0.31 | 0.00 | 97 | 1017.6 |
| 20260505230524 | 50 | 29 | 0.0 | 1.0 | 0.00 | 0.31 | 0.00 | 97 | 1017.6 |
| 20260505230403 | 50 | 29 | 0.0 | 1.0 | 0.00 | 0.31 | 0.00 | 97 | 1017.6 |
| 20260505230303 | 50 | 29 | 0.0 | 1.0 | 0.00 | 0.31 | 0.00 | 97 | 1017.6 |
| 20260505230203 | 50 | 29 | 0.0 | 1.0 | 0.00 | 0.31 | 0.00 | 97 | 1017.6 |
| 20260505230003 | 50 | 29 | 0.0 | 1.0 | 0.00 | 0.31 | 0.00 | 97 | 1017.6 |
| 20260505225903 | 50 | 29 | 0.0 | 1.0 | 0.00 | 0.31 | 0.00 | 97 | 1017.6 |
| 20260505225824 | 50 | 29 | 0.0 | 1.0 | 0.00 | 0.31 | 0.00 | 97 | 1017.7 |
| 20260505225702 | 50 | 29 | 0.0 | 1.0 | 0.00 | 0.31 | 0.00 | 97 | 1017.8 |
| 20260505225624 | 50 | 29 | 0.0 | 1.0 | 0.00 | 0.31 | 0.00 | 97 | 1017.6 |
| 20260505225503 | 50 | 24 | 0.0 | 1.0 | 0.00 | 0.31 | 0.00 | 97 | 1017.6 |
| 20260505225403 | 50 | 22 | 0.0 | 1.0 | 0.00 | 0.31 | 0.00 | 97 | 1017.6 |
| 20260505225305 | 50 | 21 | 0.0 | 1.0 | 0.00 | 0.31 | 0.00 | 97 | 1017.8 |
| 20260505225203 | 50 | 20 | 0.0 | 1.0 | 0.00 | 0.31 | 0.00 | 97 | 1017.8 |
| 20260505225103 | 50 | 19 | 0.0 | 1.0 | 0.00 | 0.31 | 0.00 | 97 | 1017.7 |
| 20260505225003 | 50 | 19 | 0.0 | 1.0 | 0.00 | 0.31 | 0.00 | 97 | 1017.7 |
| 20260505224903 | 50 | 17 | 0.0 | 1.0 | 0.00 | 0.31 | 0.00 | 97 | 1017.7 |
| 20260505224803 | 50 | 15 | 0.0 | 1.0 | 0.00 | 0.31 | 0.00 | 97 | 1017.7 |
| 20260505224703 | 51 | 15 | 0.0 | 1.0 | 0.00 | 0.31 | 0.00 | 97 | 1017.8 |
| 20260505224603 | 51 | 15 | 1.0 | 1.0 | 0.00 | 0.31 | 0.00 | 97 | 1017.8 |
| 20260505224524 | 51 | 15 | 1.0 | 1.0 | 0.00 | 0.31 | 0.00 | 97 | 1017.8 |
| 20260505224403 | 51 | 15 | 0.0 | 1.0 | 0.00 | 0.31 | 0.00 | 97 | 1017.8 |
| 20260505224303 | 51 | 15 | 0.0 | 1.0 | 0.00 | 0.31 | 0.00 | 97 | 1017.6 |
| 20260505224203 | 51 | 15 | 0.0 | 1.0 | 0.00 | 0.31 | 0.00 | 97 | 1017.8 |
| 20260505224103 | 51 | 15 | 0.0 | 1.0 | 0.00 | 0.31 | 0.00 | 97 | 1017.7 |
| 20260505224003 | 51 | 15 | 0.0 | 1.0 | 0.00 | 0.31 | 0.00 | 97 | 1017.8 |
| 20260505223903 | 51 | 15 | 0.0 | 1.0 | 0.00 | 0.31 | 0.00 | 97 | 1017.8 |
| 20260505223824 | 51 | 15 | 0.0 | 1.0 | 0.00 | 0.31 | 0.00 | 97 | 1017.8 |
| 20260505223703 | 51 | 15 | 0.0 | 1.0 | 0.00 | 0.31 | 0.00 | 97 | 1017.7 |
| 20260505223602 | 51 | 14 | 0.0 | 1.0 | 0.00 | 0.31 | 0.00 | 97 | 1017.9 |
| 20260505223502 | 51 | 14 | 0.0 | 1.0 | 0.00 | 0.31 | 0.00 | 97 | 1017.8 |
| 20260505223402 | 51 | 14 | 0.0 | 1.0 | 0.00 | 0.31 | 0.00 | 97 | 1017.8 |
| 20260505223303 | 51 | 14 | 0.0 | 1.0 | 0.00 | 0.31 | 0.00 | 97 | 1017.9 |
| 20260505223203 | 51 | 13 | 0.0 | 1.0 | 0.00 | 0.31 | 0.00 | 96 | 1017.8 |
| 20260505223102 | 51 | 12 | 0.0 | 1.0 | 0.00 | 0.31 | 0.00 | 96 | 1017.8 |
| 20260505223024 | 51 | 12 | 0.0 | 1.0 | 0.00 | 0.31 | 0.00 | 96 | 1017.8 |
| 20260505222903 | 51 | 12 | 0.0 | 1.0 | 0.00 | 0.31 | 0.00 | 96 | 1017.7 |
| 20260505222803 | 51 | 12 | 0.0 | 1.0 | 0.00 | 0.31 | 0.00 | 96 | 1017.8 |
| 20260505222703 | 51 | 12 | 0.0 | 1.0 | 0.00 | 0.31 | 0.00 | 96 | 1017.8 |
| 20260505222603 | 51 | 12 | 0.0 | 1.0 | 0.00 | 0.31 | 0.00 | 96 | 1017.8 |
| 20260505222503 | 51 | 12 | 0.0 | 1.0 | 0.00 | 0.31 | 0.00 | 96 | 1017.7 |
| 20260505222403 | 51 | 12 | 0.0 | 1.0 | 0.00 | 0.31 | 0.00 | 96 | 1017.8 |
| 20260505222305 | 51 | 12 | 0.0 | 1.0 | 0.00 | 0.31 | 0.00 | 96 | 1017.8 |
| 20260505222224 | 50 | 12 | 0.0 | 1.0 | 0.00 | 0.31 | 0.00 | 96 | 1017.6 |
| 20260505222103 | 50 | 12 | 0.0 | 1.0 | 0.00 | 0.31 | 0.00 | 96 | 1017.6 |
| 20260505222003 | 50 | 0 | 0.0 | 0.0 | 0.00 | 0.31 | 0.00 | 96 | 1017.7 |
| 20260505221902 | 50 | 0 | 0.0 | 0.0 | 0.00 | 0.31 | 0.00 | 96 | 1017.8 |
| 20260505221803 | 50 | 0 | 0.0 | 0.0 | 0.00 | 0.31 | 0.00 | 96 | 1017.7 |
| 20260505221703 | 50 | 0 | 0.0 | 0.0 | 0.00 | 0.31 | 0.00 | 96 | 1017.9 |
| 20260505221603 | 50 | 0 | 0.0 | 0.0 | 0.00 | 0.31 | 0.00 | 96 | 1017.7 |
| 20260505221502 | 50 | 0 | 0.0 | 0.0 | 0.00 | 0.31 | 0.00 | 96 | 1017.8 |
| 20260505221403 | 50 | 0 | 0.0 | 0.0 | 0.00 | 0.31 | 0.00 | 96 | 1017.8 |
| 20260505221303 | 50 | 0 | 0.0 | 0.0 | 0.00 | 0.31 | 0.00 | 96 | 1017.8 |
| 20260505221203 | 50 | 0 | 0.0 | 0.0 | 0.00 | 0.31 | 0.00 | 96 | 1017.6 |
| 20260505221103 | 50 | 0 | 0.0 | 0.0 | 0.00 | 0.31 | 0.00 | 96 | 1017.6 |
| 20260505221024 | 50 | 0 | 0.0 | 0.0 | 0.00 | 0.31 | 0.00 | 96 | 1017.6 |
| 20260505220903 | 50 | 0 | 0.0 | 0.0 | 0.00 | 0.31 | 0.00 | 96 | 1017.8 |
| 20260505220803 | 50 | 0 | 0.0 | 0.0 | 0.00 | 0.31 | 0.00 | 96 | 1017.8 |
| 20260505220724 | 50 | 0 | 0.0 | 0.0 | 0.00 | 0.31 | 0.00 | 96 | 1017.8 |
| 20260505220603 | 50 | 0 | 0.0 | 0.0 | 0.00 | 0.31 | 0.00 | 96 | 1017.8 |
| 20260505220503 | 50 | 0 | 0.0 | 0.0 | 0.00 | 0.31 | 0.00 | 95 | 1017.8 |
| 20260505220403 | 50 | 0 | 0.0 | 0.0 | 0.00 | 0.31 | 0.00 | 95 | 1017.7 |
| 20260505220303 | 50 | 0 | 0.0 | 0.0 | 0.00 | 0.31 | 0.00 | 95 | 1017.7 |
| 20260505220203 | 50 | 0 | 0.0 | 0.0 | 0.00 | 0.31 | 0.00 | 95 | 1017.8 |
| 20260505220003 | 50 | 0 | 0.0 | 0.0 | 0.00 | 0.31 | 0.00 | 95 | 1017.9 |
| 20260505215903 | 50 | 0 | 0.0 | 0.0 | 0.00 | 0.31 | 0.31 | 95 | 1017.7 |
| 20260505215803 | 50 | 0 | 0.0 | 0.0 | 0.00 | 0.31 | 0.31 | 95 | 1017.7 |
| 20260505215703 | 50 | 0 | 0.0 | 0.0 | 0.00 | 0.31 | 0.31 | 95 | 1017.6 |
| 20260505215603 | 50 | 0 | 0.0 | 0.0 | 0.00 | 0.31 | 0.31 | 95 | 1017.7 |
| 20260505215524 | 50 | 0 | 0.0 | 0.0 | 0.00 | 0.31 | 0.31 | 95 | 1017.8 |
| 20260505215403 | 50 | 0 | 0.0 | 0.0 | 0.00 | 0.31 | 0.31 | 95 | 1017.6 |
| 20260505215305 | 50 | 0 | 0.0 | 0.0 | 0.00 | 0.31 | 0.31 | 95 | 1017.8 |
| 20260505215203 | 50 | 0 | 0.0 | 0.0 | 0.00 | 0.31 | 0.31 | 95 | 1017.7 |
| 20260505215103 | 51 | 0 | 0.0 | 0.0 | 0.00 | 0.31 | 0.31 | 95 | 1017.7 |
| 20260505215003 | 51 | 0 | 0.0 | 0.0 | 0.00 | 0.31 | 0.31 | 95 | 1017.7 |
| 20260505214903 | 51 | 0 | 0.0 | 0.0 | 0.00 | 0.31 | 0.31 | 95 | 1017.6 |
| 20260505214824 | 51 | 0 | 0.0 | 0.0 | 0.00 | 0.31 | 0.31 | 95 | 1017.6 |
| 20260505214703 | 51 | 0 | 0.0 | 0.0 | 0.00 | 0.31 | 0.31 | 95 | 1017.7 |
| 20260505214603 | 51 | 0 | 0.0 | 0.0 | 0.00 | 0.31 | 0.31 | 95 | 1017.7 |
| 20260505214524 | 51 | 0 | 0.0 | 0.0 | 0.00 | 0.31 | 0.31 | 95 | 1017.8 |
| 20260505214403 | 51 | 0 | 0.0 | 0.0 | 0.00 | 0.31 | 0.31 | 95 | 1017.7 |
| 20260505214303 | 51 | 0 | 0.0 | 0.0 | 0.00 | 0.31 | 0.31 | 95 | 1017.7 |
| 20260505214203 | 51 | 0 | 0.0 | 0.0 | 0.00 | 0.31 | 0.31 | 95 | 1017.8 |
| 20260505214124 | 51 | 0 | 0.0 | 0.0 | 0.00 | 0.31 | 0.31 | 95 | 1017.8 |
| 20260505214003 | 51 | 0 | 0.0 | 0.0 | 0.00 | 0.31 | 0.31 | 95 | 1017.7 |
| 20260505213903 | 51 | 0 | 0.0 | 0.0 | 0.00 | 0.31 | 0.31 | 94 | 1017.6 |
| 20260505213824 | 51 | 0 | 0.0 | 0.0 | 0.00 | 0.31 | 0.31 | 94 | 1017.8 |
| 20260505213703 | 51 | 0 | 0.0 | 0.0 | 0.00 | 0.31 | 0.31 | 94 | 1017.7 |
| 20260505213603 | 51 | 0 | 0.0 | 0.0 | 0.00 | 0.31 | 0.31 | 94 | 1017.7 |
| 20260505213503 | 51 | 0 | 0.0 | 0.0 | 0.00 | 0.31 | 0.31 | 94 | 1017.7 |
| 20260505213403 | 51 | 0 | 0.0 | 0.0 | 0.00 | 0.31 | 0.31 | 94 | 1018.0 |
| 20260505213303 | 51 | 0 | 0.0 | 0.0 | 0.00 | 0.31 | 0.31 | 94 | 1017.7 |
| 20260505213224 | 51 | 0 | 0.0 | 0.0 | 0.00 | 0.31 | 0.31 | 94 | 1017.7 |
| 20260505213103 | 51 | 0 | 0.0 | 0.0 | 0.00 | 0.31 | 0.31 | 94 | 1017.9 |
| 20260505213024 | 51 | 0 | 0.0 | 0.0 | 0.00 | 0.31 | 0.31 | 94 | 1017.9 |
| 20260505212903 | 51 | 0 | 0.0 | 0.0 | 0.00 | 0.31 | 0.31 | 94 | 1017.9 |
| 20260505212803 | 51 | 0 | 0.0 | 0.0 | 0.00 | 0.31 | 0.31 | 94 | 1017.7 |
| 20260505212703 | 51 | 0 | 0.0 | 0.0 | 0.00 | 0.31 | 0.31 | 94 | 1017.7 |
| 20260505212624 | 51 | 0 | 0.0 | 0.0 | 0.00 | 0.31 | 0.31 | 94 | 1017.8 |
| 20260505212503 | 52 | 0 | 0.0 | 0.0 | 0.00 | 0.31 | 0.31 | 94 | 1017.7 |
| 20260505212402 | 52 | 12 | 0.0 | 1.0 | 0.00 | 0.31 | 0.31 | 94 | 1017.8 |
| 20260505212305 | 52 | 12 | 0.0 | 1.0 | 0.00 | 0.31 | 0.31 | 94 | 1017.9 |
| 20260505212203 | 52 | 12 | 0.0 | 1.0 | 0.00 | 0.31 | 0.31 | 94 | 1017.7 |
| 20260505212103 | 52 | 12 | 0.0 | 1.0 | 0.00 | 0.31 | 0.31 | 94 | 1017.8 |
| 20260505212003 | 52 | 12 | 0.0 | 1.0 | 0.00 | 0.31 | 0.31 | 94 | 1017.8 |
| 20260505211903 | 52 | 12 | 0.0 | 1.0 | 0.00 | 0.31 | 0.31 | 94 | 1017.7 |
| 20260505211803 | 52 | 12 | 0.0 | 1.0 | 0.00 | 0.31 | 0.31 | 94 | 1017.8 |
| 20260505211703 | 52 | 12 | 0.0 | 1.0 | 0.00 | 0.31 | 0.31 | 94 | 1017.8 |
| 20260505211603 | 52 | 12 | 0.0 | 1.0 | 0.00 | 0.31 | 0.31 | 94 | 1017.9 |
| 20260505211503 | 52 | 12 | 0.0 | 1.0 | 0.00 | 0.31 | 0.31 | 93 | 1017.9 |
| 20260505211403 | 52 | 11 | 0.0 | 1.0 | 0.00 | 0.31 | 0.31 | 93 | 1017.7 |
| 20260505211303 | 52 | 0 | 0.0 | 0.0 | 0.00 | 0.31 | 0.31 | 93 | 1017.7 |
| 20260505211203 | 52 | 0 | 0.0 | 0.0 | 0.00 | 0.31 | 0.31 | 93 | 1017.9 |
| 20260505211103 | 52 | 0 | 0.0 | 0.0 | 0.00 | 0.31 | 0.31 | 93 | 1017.9 |
| 20260505211003 | 52 | 0 | 0.0 | 0.0 | 0.00 | 0.31 | 0.31 | 93 | 1017.8 |
| 20260505210903 | 52 | 0 | 0.0 | 0.0 | 0.00 | 0.31 | 0.31 | 93 | 1017.7 |
| 20260505210803 | 53 | 0 | 0.0 | 0.0 | 0.00 | 0.31 | 0.31 | 93 | 1017.7 |
| 20260505210703 | 53 | 0 | 0.0 | 0.0 | 0.00 | 0.31 | 0.31 | 93 | 1017.7 |
| 20260505210603 | 53 | 0 | 0.0 | 0.0 | 0.00 | 0.31 | 0.31 | 93 | 1017.7 |
| 20260505210524 | 53 | 0 | 0.0 | 0.0 | 0.00 | 0.31 | 0.31 | 93 | 1017.8 |
| 20260505210403 | 53 | 0 | 0.0 | 0.0 | 0.00 | 0.31 | 0.31 | 93 | 1017.7 |
| 20260505210303 | 53 | 0 | 0.0 | 0.0 | 0.00 | 0.31 | 0.31 | 93 | 1017.7 |
| 20260505210203 | 53 | 0 | 0.0 | 0.0 | 0.00 | 0.31 | 0.31 | 93 | 1017.8 |
| 20260505210124 | 53 | 0 | 0.0 | 0.0 | 0.00 | 0.31 | 0.31 | 93 | 1017.7 |
| 20260505210003 | 53 | 0 | 0.0 | 0.0 | 0.00 | 0.31 | 0.31 | 93 | 1017.7 |
| 20260505205903 | 53 | 0 | 0.0 | 0.0 | 0.00 | 0.31 | 0.31 | 93 | 1017.9 |
| 20260505205803 | 53 | 0 | 0.0 | 0.0 | 0.00 | 0.31 | 0.31 | 92 | 1017.7 |
| 20260505205703 | 53 | 0 | 0.0 | 0.0 | 0.00 | 0.31 | 0.31 | 92 | 1017.7 |
| 20260505205603 | 53 | 0 | 0.0 | 0.0 | 0.00 | 0.31 | 0.31 | 92 | 1017.7 |
| 20260505205503 | 53 | 0 | 0.0 | 0.0 | 0.00 | 0.31 | 0.31 | 92 | 1017.7 |
| 20260505205403 | 53 | 0 | 0.0 | 0.0 | 0.00 | 0.31 | 0.31 | 92 | 1017.7 |
| 20260505205305 | 53 | 0 | 0.0 | 0.0 | 0.00 | 0.31 | 0.31 | 92 | 1017.7 |
| 20260505205203 | 53 | 0 | 0.0 | 0.0 | 0.00 | 0.31 | 0.31 | 92 | 1017.9 |
| 20260505205103 | 53 | 0 | 0.0 | 0.0 | 0.00 | 0.31 | 0.31 | 92 | 1017.8 |
| 20260505205024 | 53 | 0 | 0.0 | 0.0 | 0.00 | 0.31 | 0.31 | 92 | 1017.7 |
| 20260505204903 | 53 | 0 | 0.0 | 0.0 | 0.00 | 0.31 | 0.31 | 92 | 1017.8 |
| 20260505204824 | 53 | 0 | 0.0 | 0.0 | 0.00 | 0.31 | 0.31 | 92 | 1017.9 |
| 20260505204703 | 53 | 0 | 0.0 | 0.0 | 0.00 | 0.31 | 0.31 | 92 | 1017.7 |
| 20260505204603 | 53 | 0 | 0.0 | 0.0 | 0.00 | 0.31 | 0.31 | 92 | 1017.8 |
| 20260505204503 | 53 | 0 | 0.0 | 0.0 | 0.00 | 0.31 | 0.31 | 92 | 1017.7 |
| 20260505204403 | 53 | 0 | 0.0 | 0.0 | 0.00 | 0.31 | 0.31 | 92 | 1017.8 |
| 20260505204303 | 53 | 0 | 0.0 | 0.0 | 0.00 | 0.31 | 0.31 | 92 | 1017.7 |
| 20260505204203 | 53 | 0 | 0.0 | 0.0 | 0.00 | 0.31 | 0.31 | 92 | 1017.7 |
| 20260505204124 | 53 | 0 | 0.0 | 0.0 | 0.00 | 0.31 | 0.31 | 92 | 1017.7 |
| 20260505204024 | 53 | 0 | 0.0 | 0.0 | 0.00 | 0.31 | 0.31 | 92 | 1017.6 |
| 20260505203903 | 53 | 0 | 0.0 | 0.0 | 0.00 | 0.31 | 0.31 | 92 | 1017.7 |
| 20260505203824 | 53 | 0 | 0.0 | 0.0 | 0.00 | 0.31 | 0.31 | 92 | 1017.7 |
| 20260505203703 | 54 | 0 | 0.0 | 0.0 | 0.00 | 0.31 | 0.31 | 91 | 1017.9 |
| 20260505203603 | 54 | 0 | 0.0 | 0.0 | 0.00 | 0.31 | 0.31 | 91 | 1017.9 |
| 20260505203524 | 54 | 0 | 0.0 | 0.0 | 0.00 | 0.31 | 0.31 | 91 | 1017.9 |
| 20260505203403 | 54 | 0 | 0.0 | 0.0 | 0.00 | 0.31 | 0.31 | 91 | 1017.8 |
| 20260505203303 | 54 | 0 | 0.0 | 0.0 | 0.00 | 0.31 | 0.31 | 91 | 1017.8 |
| 20260505203203 | 54 | 0 | 0.0 | 0.0 | 0.00 | 0.31 | 0.31 | 91 | 1017.8 |
| 20260505203103 | 54 | 0 | 0.0 | 0.0 | 0.00 | 0.31 | 0.31 | 91 | 1017.6 |
| 20260505203003 | 54 | 0 | 0.0 | 0.0 | 0.00 | 0.31 | 0.31 | 91 | 1017.8 |
| 20260505202903 | 54 | 0 | 0.0 | 0.0 | 0.00 | 0.31 | 0.31 | 91 | 1017.6 |
| 20260505202803 | 54 | 0 | 0.0 | 0.0 | 0.00 | 0.31 | 0.31 | 91 | 1017.7 |
| 20260505202703 | 54 | 11 | 0.0 | 1.0 | 0.00 | 0.31 | 0.31 | 91 | 1017.7 |
| 20260505202603 | 54 | 11 | 0.0 | 1.0 | 0.00 | 0.31 | 0.31 | 91 | 1017.7 |
| 20260505202524 | 54 | 11 | 0.0 | 1.0 | 0.00 | 0.31 | 0.31 | 91 | 1017.7 |
| 20260505202424 | 54 | 11 | 0.0 | 1.0 | 0.00 | 0.31 | 0.31 | 91 | 1017.7 |
| 20260505202306 | 54 | 11 | 0.0 | 1.0 | 0.00 | 0.31 | 0.31 | 90 | 1017.6 |
| 20260505202203 | 54 | 11 | 0.0 | 1.0 | 0.00 | 0.31 | 0.31 | 90 | 1017.7 |
| 20260505202103 | 54 | 11 | 0.0 | 1.0 | 0.00 | 0.31 | 0.31 | 90 | 1017.6 |
| 20260505202003 | 54 | 11 | 1.0 | 1.0 | 0.00 | 0.31 | 0.31 | 90 | 1017.7 |
| 20260505201903 | 54 | 11 | 1.0 | 1.0 | 0.00 | 0.31 | 0.31 | 90 | 1017.7 |
| 20260505201803 | 54 | 11 | 1.0 | 1.0 | 0.00 | 0.31 | 0.31 | 90 | 1017.8 |
| 20260505201703 | 54 | 11 | 1.0 | 1.0 | 0.00 | 0.31 | 0.31 | 90 | 1017.7 |
| 20260505201603 | 54 | 11 | 1.0 | 1.0 | 0.00 | 0.31 | 0.31 | 90 | 1017.5 |
| 20260505201503 | 54 | 11 | 1.0 | 1.0 | 0.00 | 0.31 | 0.31 | 90 | 1017.5 |
| 20260505201403 | 54 | 11 | 1.0 | 1.0 | 0.00 | 0.31 | 0.31 | 90 | 1017.6 |
| 20260505201303 | 54 | 11 | 1.0 | 1.0 | 0.00 | 0.31 | 0.31 | 90 | 1017.5 |
| 20260505201203 | 54 | 11 | 1.0 | 1.0 | 0.00 | 0.31 | 0.31 | 90 | 1017.6 |
| 20260505201103 | 54 | 11 | 1.0 | 1.0 | 0.00 | 0.31 | 0.31 | 90 | 1017.5 |
| 20260505201003 | 54 | 11 | 1.0 | 1.0 | 0.00 | 0.31 | 0.31 | 90 | 1017.5 |
| 20260505200903 | 54 | 11 | 1.0 | 1.0 | 0.00 | 0.31 | 0.31 | 90 | 1017.3 |
| 20260505200803 | 54 | 11 | 0.0 | 1.0 | 0.00 | 0.31 | 0.31 | 90 | 1017.6 |
| 20260505200703 | 54 | 11 | 0.0 | 1.0 | 0.00 | 0.31 | 0.31 | 90 | 1017.4 |
| 20260505200603 | 54 | 11 | 1.0 | 2.0 | 0.00 | 0.31 | 0.31 | 90 | 1017.5 |
| 20260505200524 | 54 | 11 | 1.0 | 2.0 | 0.00 | 0.31 | 0.31 | 90 | 1017.5 |
| 20260505200403 | 54 | 11 | 0.0 | 2.0 | 0.00 | 0.31 | 0.31 | 90 | 1017.3 |
| 20260505200324 | 54 | 11 | 0.0 | 2.0 | 0.00 | 0.31 | 0.31 | 90 | 1017.3 |
| 20260505200203 | 54 | 11 | 0.0 | 2.0 | 0.00 | 0.31 | 0.31 | 90 | 1017.5 |
| 20260505200003 | 54 | 11 | 0.0 | 2.0 | 0.00 | 0.31 | 0.31 | 90 | 1017.4 |
| 20260505195903 | 54 | 11 | 0.0 | 2.0 | 0.00 | 0.31 | 0.31 | 90 | 1017.4 |
| 20260505195803 | 54 | 11 | 0.0 | 2.0 | 0.00 | 0.31 | 0.31 | 90 | 1017.3 |
| 20260505195703 | 54 | 11 | 0.0 | 2.0 | 0.00 | 0.31 | 0.31 | 90 | 1017.5 |
| 20260505195603 | 54 | 11 | 0.0 | 2.0 | 0.00 | 0.31 | 0.31 | 90 | 1017.3 |
| 20260505195503 | 54 | 11 | 0.0 | 1.0 | 0.00 | 0.31 | 0.31 | 90 | 1017.3 |
| 20260505195403 | 54 | 11 | 0.0 | 1.0 | 0.00 | 0.31 | 0.31 | 90 | 1017.4 |
| 20260505195305 | 54 | 11 | 0.0 | 1.0 | 0.00 | 0.31 | 0.31 | 90 | 1017.4 |
| 20260505195203 | 54 | 11 | 0.0 | 1.0 | 0.00 | 0.31 | 0.31 | 90 | 1017.2 |
| 20260505195103 | 54 | 11 | 0.0 | 1.0 | 0.00 | 0.31 | 0.31 | 89 | 1017.2 |
| 20260505195003 | 54 | 11 | 0.0 | 1.0 | 0.00 | 0.31 | 0.31 | 89 | 1017.3 |
| 20260505194903 | 54 | 11 | 0.0 | 1.0 | 0.00 | 0.31 | 0.31 | 89 | 1017.4 |
| 20260505194803 | 54 | 11 | 0.0 | 1.0 | 0.00 | 0.31 | 0.31 | 89 | 1017.3 |
| 20260505194703 | 54 | 11 | 0.0 | 1.0 | 0.00 | 0.31 | 0.31 | 89 | 1017.3 |
| 20260505194603 | 54 | 11 | 0.0 | 1.0 | 0.00 | 0.31 | 0.31 | 89 | 1017.4 |
| 20260505194524 | 54 | 11 | 0.0 | 1.0 | 0.00 | 0.31 | 0.31 | 89 | 1017.4 |
| 20260505194424 | 54 | 11 | 0.0 | 1.0 | 0.00 | 0.31 | 0.31 | 89 | 1017.3 |
| 20260505194303 | 54 | 10 | 0.0 | 2.0 | 0.00 | 0.31 | 0.31 | 89 | 1017.3 |
| 20260505194203 | 54 | 10 | 0.0 | 2.0 | 0.00 | 0.31 | 0.31 | 89 | 1017.3 |
| 20260505194103 | 54 | 10 | 0.0 | 2.0 | 0.00 | 0.31 | 0.31 | 88 | 1017.3 |
| 20260505194003 | 54 | 10 | 0.0 | 2.0 | 0.00 | 0.32 | 0.31 | 88 | 1017.2 |
| 20260505193903 | 54 | 9 | 0.0 | 2.0 | 0.00 | 0.32 | 0.31 | 88 | 1017.1 |
| 20260505193824 | 54 | 9 | 1.0 | 2.0 | 0.00 | 0.32 | 0.31 | 88 | 1017.2 |
| 20260505193703 | 54 | 9 | 1.0 | 2.0 | 0.00 | 0.32 | 0.31 | 88 | 1017.2 |
| 20260505193603 | 54 | 9 | 1.0 | 2.0 | 0.00 | 0.32 | 0.31 | 88 | 1017.2 |
| 20260505193503 | 54 | 9 | 1.0 | 2.0 | 0.00 | 0.32 | 0.31 | 88 | 1017.2 |
| 20260505193403 | 54 | 9 | 1.0 | 2.0 | 0.00 | 0.32 | 0.31 | 88 | 1017.2 |
| 20260505193303 | 54 | 8 | 1.0 | 1.0 | 0.00 | 0.32 | 0.31 | 88 | 1017.2 |
| 20260505193203 | 54 | 8 | 1.0 | 2.0 | 0.00 | 0.32 | 0.31 | 88 | 1017.3 |
| 20260505193103 | 54 | 8 | 1.0 | 2.0 | 0.00 | 0.32 | 0.31 | 88 | 1017.4 |
| 20260505193003 | 54 | 8 | 1.0 | 2.0 | 0.00 | 0.32 | 0.31 | 87 | 1017.2 |
| 20260505192903 | 55 | 6 | 1.0 | 3.0 | 0.00 | 0.32 | 0.31 | 87 | 1017.2 |
| 20260505192803 | 55 | 6 | 1.0 | 3.0 | 0.00 | 0.32 | 0.31 | 87 | 1017.2 |
| 20260505192703 | 55 | 7 | 1.0 | 3.0 | 0.00 | 0.32 | 0.31 | 87 | 1017.1 |
| 20260505192603 | 55 | 7 | 1.0 | 3.0 | 0.00 | 0.32 | 0.31 | 87 | 1017.0 |
| 20260505192503 | 55 | 7 | 1.0 | 3.0 | 0.00 | 0.32 | 0.31 | 87 | 1017.1 |
| 20260505192403 | 55 | 7 | 1.0 | 3.0 | 0.00 | 0.32 | 0.31 | 87 | 1017.1 |
| 20260505192305 | 55 | 7 | 1.0 | 3.0 | 0.00 | 0.32 | 0.31 | 87 | 1017.1 |
| 20260505192203 | 55 | 7 | 1.0 | 3.0 | 0.00 | 0.32 | 0.31 | 87 | 1017.0 |
| 20260505192103 | 55 | 8 | 1.0 | 3.0 | 0.00 | 0.32 | 0.31 | 87 | 1017.2 |
| 20260505192003 | 55 | 8 | 1.0 | 3.0 | 0.00 | 0.32 | 0.31 | 87 | 1017.2 |
| 20260505191903 | 55 | 7 | 1.0 | 3.0 | 0.00 | 0.32 | 0.31 | 87 | 1017.2 |
| 20260505191803 | 55 | 8 | 1.0 | 2.0 | 0.00 | 0.32 | 0.31 | 87 | 1017.1 |
| 20260505191703 | 55 | 8 | 1.0 | 2.0 | 0.00 | 0.32 | 0.31 | 87 | 1017.0 |
| 20260505191603 | 55 | 7 | 1.0 | 2.0 | 0.00 | 0.32 | 0.31 | 87 | 1017.2 |
| 20260505191524 | 55 | 7 | 1.0 | 2.0 | 0.00 | 0.32 | 0.31 | 87 | 1017.2 |
| 20260505191403 | 55 | 7 | 1.0 | 2.0 | 0.00 | 0.32 | 0.31 | 87 | 1017.1 |
| 20260505191303 | 55 | 6 | 1.0 | 2.0 | 0.00 | 0.32 | 0.31 | 87 | 1017.1 |
| 20260505191224 | 55 | 6 | 1.0 | 2.0 | 0.00 | 0.32 | 0.31 | 87 | 1017.1 |
| 20260505191103 | 55 | 5 | 1.0 | 2.0 | 0.00 | 0.32 | 0.31 | 87 | 1017.0 |
| 20260505191003 | 55 | 4 | 1.0 | 2.0 | 0.00 | 0.32 | 0.31 | 87 | 1017.1 |
| 20260505190903 | 55 | 4 | 1.0 | 2.0 | 0.00 | 0.32 | 0.31 | 86 | 1017.2 |
| 20260505190403 | 55 | 6 | 1.0 | 4.0 | 0.00 | 0.32 | 0.31 | 86 | 1016.9 |
| 20260505190324 | 55 | 6 | 1.0 | 4.0 | 0.00 | 0.32 | 0.31 | 86 | 1016.9 |
| 20260505190203 | 55 | 6 | 1.0 | 4.0 | 0.00 | 0.32 | 0.31 | 86 | 1016.9 |
| 20260505190003 | 55 | 6 | 1.0 | 4.0 | 0.00 | 0.32 | 0.31 | 86 | 1017.3 |
| 20260505185903 | 55 | 6 | 1.0 | 4.0 | 0.00 | 0.32 | 0.31 | 86 | 1017.3 |
| 20260505185824 | 55 | 6 | 1.0 | 4.0 | 0.00 | 0.32 | 0.31 | 86 | 1017.1 |
| 20260505185703 | 55 | 6 | 1.0 | 4.0 | 0.00 | 0.32 | 0.31 | 86 | 1017.0 |
| 20260505185603 | 55 | 5 | 1.0 | 4.0 | 0.00 | 0.32 | 0.31 | 86 | 1017.0 |
| 20260505185503 | 55 | 5 | 1.0 | 3.0 | 0.00 | 0.32 | 0.31 | 86 | 1017.1 |
| 20260505185403 | 55 | 5 | 1.0 | 3.0 | 0.00 | 0.32 | 0.31 | 86 | 1017.0 |
| 20260505185305 | 55 | 5 | 1.0 | 3.0 | 0.00 | 0.32 | 0.31 | 86 | 1017.1 |
| 20260505185203 | 56 | 5 | 1.0 | 3.0 | 0.00 | 0.33 | 0.31 | 86 | 1017.1 |
| 20260505185103 | 56 | 5 | 1.0 | 3.0 | 0.00 | 0.33 | 0.31 | 86 | 1017.1 |
| 20260505185003 | 56 | 6 | 1.0 | 3.0 | 0.00 | 0.33 | 0.31 | 86 | 1017.2 |
| 20260505184903 | 56 | 6 | 1.0 | 2.0 | 0.00 | 0.33 | 0.31 | 85 | 1017.1 |
| 20260505184824 | 56 | 6 | 1.0 | 2.0 | 0.00 | 0.34 | 0.31 | 85 | 1017.1 |
| 20260505184724 | 56 | 6 | 1.0 | 2.0 | 0.00 | 0.34 | 0.31 | 85 | 1017.3 |
| 20260505184603 | 56 | 7 | 1.0 | 2.0 | 0.00 | 0.34 | 0.31 | 85 | 1016.9 |
| 20260505184503 | 56 | 6 | 1.0 | 3.0 | 0.00 | 0.34 | 0.31 | 86 | 1016.9 |
| 20260505184403 | 56 | 6 | 1.0 | 3.0 | 0.00 | 0.34 | 0.31 | 85 | 1017.0 |
| 20260505184303 | 56 | 6 | 1.0 | 3.0 | 0.00 | 0.34 | 0.31 | 85 | 1017.1 |
| 20260505184203 | 56 | 5 | 1.0 | 3.0 | 0.00 | 0.34 | 0.31 | 85 | 1017.1 |
| 20260505184103 | 56 | 6 | 2.0 | 4.0 | 0.00 | 0.34 | 0.31 | 85 | 1017.1 |
| 20260505184024 | 56 | 3 | 2.0 | 4.0 | 0.00 | 0.34 | 0.31 | 85 | 1017.2 |
| 20260505183903 | 56 | 4 | 2.0 | 4.0 | 0.00 | 0.34 | 0.31 | 85 | 1017.0 |
| 20260505183803 | 56 | 4 | 2.0 | 4.0 | 0.00 | 0.34 | 0.31 | 85 | 1017.0 |
| 20260505183703 | 56 | 3 | 2.0 | 4.0 | 0.00 | 0.34 | 0.31 | 85 | 1017.0 |
| 20260505183603 | 56 | 4 | 2.0 | 4.0 | 0.00 | 0.34 | 0.31 | 85 | 1017.0 |
| 20260505183503 | 56 | 4 | 2.0 | 4.0 | 0.00 | 0.34 | 0.31 | 85 | 1017.0 |
| 20260505183403 | 56 | 4 | 2.0 | 4.0 | 0.00 | 0.34 | 0.31 | 85 | 1017.0 |
| 20260505183303 | 56 | 358 | 2.0 | 6.0 | 0.00 | 0.34 | 0.31 | 85 | 1017.0 |
| 20260505183203 | 56 | 359 | 2.0 | 6.0 | 0.00 | 0.34 | 0.31 | 85 | 1016.9 |
| 20260505183103 | 56 | 358 | 2.0 | 6.0 | 0.00 | 0.34 | 0.31 | 85 | 1016.9 |
| 20260505183003 | 56 | 357 | 2.0 | 6.0 | 0.00 | 0.34 | 0.31 | 85 | 1016.9 |
| 20260505182924 | 56 | 354 | 2.0 | 6.0 | 0.00 | 0.34 | 0.31 | 84 | 1016.8 |
| 20260505182803 | 56 | 354 | 2.0 | 6.0 | 0.00 | 0.34 | 0.31 | 84 | 1017.0 |
| 20260505182703 | 56 | 354 | 2.0 | 6.0 | 0.00 | 0.34 | 0.31 | 84 | 1016.9 |
| 20260505182603 | 57 | 354 | 2.0 | 6.0 | 0.00 | 0.34 | 0.31 | 84 | 1016.9 |
| 20260505182524 | 57 | 353 | 2.0 | 6.0 | 0.00 | 0.34 | 0.31 | 84 | 1016.8 |
| 20260505182403 | 57 | 352 | 2.0 | 6.0 | 0.00 | 0.34 | 0.31 | 83 | 1016.8 |
| 20260505182324 | 57 | 355 | 2.0 | 4.0 | 0.00 | 0.34 | 0.31 | 83 | 1016.9 |
| 20260505182203 | 57 | 355 | 2.0 | 4.0 | 0.00 | 0.34 | 0.31 | 83 | 1016.8 |
| 20260505182124 | 57 | 355 | 2.0 | 4.0 | 0.00 | 0.34 | 0.31 | 83 | 1016.8 |
| 20260505182024 | 58 | 354 | 2.0 | 4.0 | 0.00 | 0.34 | 0.31 | 83 | 1016.9 |
| 20260505181903 | 58 | 357 | 2.0 | 4.0 | 0.00 | 0.34 | 0.31 | 83 | 1016.8 |
| 20260505181824 | 58 | 357 | 2.0 | 4.0 | 0.00 | 0.34 | 0.31 | 83 | 1016.8 |
| 20260505181704 | 58 | 358 | 2.0 | 4.0 | 0.00 | 0.34 | 0.31 | 82 | 1017.0 |
| 20260505181624 | 58 | 358 | 2.0 | 4.0 | 0.00 | 0.34 | 0.31 | 82 | 1017.0 |
| 20260505181503 | 58 | 358 | 2.0 | 4.0 | 0.00 | 0.34 | 0.31 | 82 | 1016.9 |
| 20260505181403 | 58 | 356 | 2.0 | 4.0 | 0.00 | 0.34 | 0.31 | 82 | 1016.8 |
| 20260505181303 | 58 | 354 | 3.0 | 7.0 | 0.00 | 0.34 | 0.31 | 82 | 1016.9 |
| 20260505181203 | 58 | 357 | 3.0 | 7.0 | 0.00 | 0.34 | 0.31 | 83 | 1016.7 |
| 20260505181103 | 58 | 357 | 3.0 | 7.0 | 0.00 | 0.34 | 0.31 | 83 | 1016.9 |
| 20260505181024 | 58 | 358 | 3.0 | 7.0 | 0.00 | 0.34 | 0.31 | 83 | 1016.8 |
| 20260505180903 | 58 | 358 | 3.0 | 7.0 | 0.00 | 0.34 | 0.31 | 83 | 1016.8 |
| 20260505180824 | 58 | 359 | 3.0 | 7.0 | 0.00 | 0.34 | 0.31 | 83 | 1016.9 |
| 20260505180724 | 58 | 358 | 3.0 | 7.0 | 0.00 | 0.34 | 0.31 | 83 | 1017.0 |
| 20260505180603 | 58 | 358 | 3.0 | 7.0 | 0.00 | 0.34 | 0.31 | 83 | 1016.7 |
| 20260505180503 | 58 | 357 | 3.0 | 7.0 | 0.00 | 0.34 | 0.31 | 83 | 1016.9 |
| 20260505180403 | 58 | 359 | 3.0 | 7.0 | 0.00 | 0.34 | 0.31 | 82 | 1016.8 |
| 20260505180324 | 58 | 359 | 3.0 | 7.0 | 0.00 | 0.34 | 0.31 | 82 | 1016.8 |
| 20260505180203 | 58 | 3 | 2.0 | 6.0 | 0.00 | 0.34 | 0.31 | 83 | 1016.9 |
| 20260505180003 | 57 | 3 | 2.0 | 6.0 | 0.00 | 0.34 | 0.31 | 83 | 1017.0 |
| 20260505175924 | 57 | 3 | 2.0 | 6.0 | 0.00 | 0.34 | 0.31 | 83 | 1017.0 |
| 20260505175803 | 57 | 1 | 2.0 | 6.0 | 0.00 | 0.34 | 0.31 | 83 | 1017.0 |
| 20260505175703 | 57 | 2 | 2.0 | 6.0 | 0.00 | 0.34 | 0.31 | 83 | 1016.8 |
| 20260505175603 | 57 | 3 | 2.0 | 6.0 | 0.00 | 0.34 | 0.31 | 83 | 1016.9 |
| 20260505175503 | 58 | 3 | 2.0 | 6.0 | 0.00 | 0.34 | 0.31 | 82 | 1016.9 |
| 20260505175424 | 58 | 3 | 2.0 | 4.0 | 0.00 | 0.34 | 0.31 | 82 | 1016.9 |
| 20260505175305 | 58 | 359 | 2.0 | 6.0 | 0.00 | 0.34 | 0.31 | 82 | 1016.8 |
| 20260505175203 | 58 | 358 | 2.0 | 6.0 | 0.00 | 0.34 | 0.31 | 82 | 1017.0 |
| 20260505175103 | 58 | 358 | 2.0 | 6.0 | 0.00 | 0.34 | 0.31 | 83 | 1017.0 |
| 20260505175003 | 58 | 358 | 2.0 | 6.0 | 0.00 | 0.34 | 0.31 | 83 | 1017.0 |
| 20260505174903 | 57 | 358 | 2.0 | 6.0 | 0.00 | 0.34 | 0.31 | 84 | 1017.1 |
| 20260505174803 | 57 | 357 | 2.0 | 6.0 | 0.00 | 0.34 | 0.31 | 84 | 1016.9 |
| 20260505174703 | 57 | 355 | 2.0 | 6.0 | 0.00 | 0.34 | 0.31 | 84 | 1017.2 |
| 20260505174603 | 57 | 357 | 2.0 | 6.0 | 0.00 | 0.34 | 0.31 | 85 | 1017.1 |
| 20260505174503 | 57 | 356 | 3.0 | 6.0 | 0.00 | 0.34 | 0.31 | 85 | 1017.1 |
| 20260505174403 | 57 | 356 | 3.0 | 6.0 | 0.00 | 0.34 | 0.31 | 85 | 1017.1 |
| 20260505174324 | 57 | 356 | 3.0 | 6.0 | 0.00 | 0.34 | 0.31 | 85 | 1017.1 |
| 20260505174224 | 57 | 357 | 3.0 | 6.0 | 0.00 | 0.34 | 0.31 | 84 | 1017.1 |
| 20260505174103 | 57 | 356 | 3.0 | 6.0 | 0.00 | 0.34 | 0.31 | 84 | 1016.9 |
| 20260505174003 | 57 | 355 | 3.0 | 6.0 | 0.00 | 0.34 | 0.31 | 84 | 1017.1 |
| 20260505173924 | 57 | 355 | 3.0 | 6.0 | 0.00 | 0.34 | 0.31 | 84 | 1017.1 |
| 20260505173803 | 57 | 356 | 3.0 | 6.0 | 0.00 | 0.34 | 0.31 | 84 | 1017.0 |
| 20260505173724 | 57 | 357 | 3.0 | 6.0 | 0.00 | 0.34 | 0.31 | 84 | 1016.9 |
| 20260505173624 | 57 | 357 | 3.0 | 6.0 | 0.00 | 0.34 | 0.31 | 84 | 1017.0 |
| 20260505173503 | 57 | 355 | 3.0 | 6.0 | 0.00 | 0.34 | 0.31 | 84 | 1016.9 |
| 20260505173403 | 57 | 356 | 2.0 | 6.0 | 0.00 | 0.34 | 0.31 | 83 | 1016.9 |
| 20260505173303 | 57 | 357 | 3.0 | 7.0 | 0.00 | 0.34 | 0.31 | 83 | 1017.1 |
| 20260505173203 | 57 | 360 | 3.0 | 7.0 | 0.00 | 0.34 | 0.31 | 83 | 1016.9 |
| 20260505173103 | 57 | 360 | 3.0 | 7.0 | 0.00 | 0.34 | 0.31 | 83 | 1017.0 |
| 20260505173003 | 57 | 358 | 3.0 | 7.0 | 0.00 | 0.34 | 0.31 | 83 | 1017.0 |
| 20260505172903 | 57 | 360 | 3.0 | 7.0 | 0.00 | 0.34 | 0.31 | 83 | 1017.0 |
| 20260505172803 | 58 | 354 | 3.0 | 8.0 | 0.00 | 0.34 | 0.31 | 83 | 1017.1 |
| 20260505172724 | 58 | 354 | 3.0 | 8.0 | 0.00 | 0.34 | 0.31 | 83 | 1017.1 |
| 20260505172603 | 58 | 357 | 4.0 | 8.0 | 0.00 | 0.34 | 0.31 | 83 | 1017.0 |
| 20260505172503 | 58 | 357 | 4.0 | 8.0 | 0.00 | 0.34 | 0.31 | 83 | 1016.8 |
| 20260505172403 | 58 | 356 | 4.0 | 8.0 | 0.00 | 0.34 | 0.31 | 83 | 1016.9 |
| 20260505172305 | 58 | 356 | 4.0 | 8.0 | 0.00 | 0.34 | 0.31 | 83 | 1016.9 |
| 20260505172203 | 58 | 357 | 4.0 | 8.0 | 0.00 | 0.34 | 0.31 | 83 | 1016.9 |
| 20260505172103 | 58 | 357 | 4.0 | 8.0 | 0.00 | 0.34 | 0.31 | 83 | 1016.9 |
| 20260505172003 | 58 | 358 | 4.0 | 8.0 | 0.00 | 0.35 | 0.31 | 83 | 1017.0 |
| 20260505171903 | 58 | 357 | 4.0 | 8.0 | 0.00 | 0.35 | 0.31 | 83 | 1016.8 |
| 20260505171803 | 58 | 356 | 4.0 | 8.0 | 0.00 | 0.35 | 0.31 | 83 | 1016.9 |
| 20260505171703 | 59 | 360 | 3.0 | 7.0 | 0.00 | 0.35 | 0.31 | 83 | 1016.9 |
| 20260505171603 | 59 | 360 | 3.0 | 7.0 | 0.00 | 0.35 | 0.31 | 82 | 1016.9 |
| 20260505171503 | 59 | 355 | 3.0 | 7.0 | 0.00 | 0.35 | 0.31 | 82 | 1016.8 |
| 20260505171403 | 59 | 356 | 4.0 | 7.0 | 0.00 | 0.35 | 0.31 | 82 | 1016.8 |
| 20260505171303 | 59 | 2 | 4.0 | 7.0 | 0.00 | 0.35 | 0.31 | 83 | 1016.9 |
| 20260505171203 | 59 | 3 | 4.0 | 7.0 | 0.00 | 0.35 | 0.31 | 83 | 1016.9 |
| 20260505171103 | 58 | 4 | 3.0 | 7.0 | 0.00 | 0.35 | 0.31 | 82 | 1017.0 |
| 20260505171003 | 58 | 4 | 3.0 | 7.0 | 0.00 | 0.35 | 0.31 | 83 | 1017.1 |
| 20260505170903 | 58 | 6 | 3.0 | 7.0 | 0.00 | 0.35 | 0.31 | 83 | 1017.0 |
| 20260505170803 | 58 | 8 | 4.0 | 7.0 | 0.00 | 0.35 | 0.31 | 83 | 1017.1 |
| 20260505170724 | 58 | 8 | 4.0 | 7.0 | 0.00 | 0.35 | 0.31 | 83 | 1017.1 |
| 20260505170603 | 58 | 8 | 4.0 | 7.0 | 0.00 | 0.35 | 0.31 | 82 | 1017.0 |
| 20260505170524 | 58 | 4 | 4.0 | 7.0 | 0.00 | 0.35 | 0.31 | 82 | 1017.0 |
| 20260505170403 | 59 | 6 | 4.0 | 7.0 | 0.00 | 0.35 | 0.31 | 82 | 1017.0 |
| 20260505170303 | 59 | 4 | 3.0 | 7.0 | 0.00 | 0.35 | 0.31 | 82 | 1017.0 |
| 20260505170203 | 59 | 360 | 3.0 | 7.0 | 0.00 | 0.35 | 0.31 | 82 | 1017.0 |
| 20260505170003 | 58 | 358 | 4.0 | 7.0 | 0.00 | 0.35 | 0.31 | 82 | 1016.8 |
| 20260505165903 | 58 | 357 | 4.0 | 7.0 | 0.00 | 0.35 | 0.31 | 82 | 1017.0 |
| 20260505165803 | 58 | 358 | 4.0 | 7.0 | 0.00 | 0.35 | 0.31 | 81 | 1016.9 |
| 20260505165703 | 58 | 357 | 3.0 | 7.0 | 0.00 | 0.35 | 0.31 | 81 | 1016.9 |
| 20260505165603 | 58 | 357 | 4.0 | 7.0 | 0.00 | 0.35 | 0.31 | 80 | 1016.9 |
| 20260505165524 | 58 | 357 | 4.0 | 7.0 | 0.00 | 0.35 | 0.31 | 80 | 1016.9 |
| 20260505165404 | 58 | 4 | 4.0 | 7.0 | 0.00 | 0.35 | 0.31 | 79 | 1016.9 |
| 20260505165305 | 58 | 5 | 4.0 | 7.0 | 0.00 | 0.35 | 0.31 | 78 | 1017.0 |
| 20260505165203 | 58 | 5 | 4.0 | 7.0 | 0.00 | 0.35 | 0.31 | 78 | 1017.0 |
| 20260505165124 | 58 | 6 | 4.0 | 7.0 | 0.00 | 0.35 | 0.31 | 78 | 1016.9 |
| 20260505165003 | 59 | 6 | 3.0 | 7.0 | 0.00 | 0.35 | 0.31 | 77 | 1016.9 |
| 20260505164903 | 59 | 6 | 3.0 | 7.0 | 0.00 | 0.35 | 0.31 | 77 | 1016.9 |
| 20260505164803 | 59 | 5 | 4.0 | 7.0 | 0.00 | 0.35 | 0.31 | 77 | 1017.0 |
| 20260505164703 | 59 | 9 | 3.0 | 7.0 | 0.00 | 0.35 | 0.31 | 78 | 1016.7 |
| 20260505164624 | 59 | 9 | 3.0 | 7.0 | 0.00 | 0.35 | 0.31 | 77 | 1016.7 |
| 20260505164503 | 59 | 9 | 3.0 | 7.0 | 0.00 | 0.35 | 0.31 | 77 | 1016.9 |
| 20260505164403 | 59 | 11 | 3.0 | 7.0 | 0.00 | 0.35 | 0.31 | 78 | 1016.8 |
| 20260505164324 | 60 | 13 | 4.0 | 8.0 | 0.00 | 0.35 | 0.31 | 78 | 1016.7 |
| 20260505164203 | 60 | 13 | 4.0 | 8.0 | 0.00 | 0.35 | 0.31 | 78 | 1016.8 |
| 20260505164103 | 60 | 8 | 4.0 | 10.0 | 0.00 | 0.35 | 0.31 | 79 | 1016.6 |
| 20260505164024 | 60 | 10 | 4.0 | 10.0 | 0.00 | 0.35 | 0.31 | 79 | 1017.0 |
| 20260505163903 | 60 | 7 | 4.0 | 10.0 | 0.00 | 0.35 | 0.31 | 78 | 1016.8 |
| 20260505163803 | 60 | 8 | 4.0 | 10.0 | 0.00 | 0.35 | 0.31 | 78 | 1016.9 |
| 20260505163703 | 60 | 4 | 4.0 | 10.0 | 0.00 | 0.35 | 0.31 | 77 | 1016.7 |
| 20260505163603 | 60 | 4 | 4.0 | 10.0 | 0.00 | 0.35 | 0.31 | 77 | 1016.7 |
| 20260505163503 | 60 | 4 | 4.0 | 10.0 | 0.00 | 0.35 | 0.31 | 77 | 1016.7 |
| 20260505163403 | 60 | 4 | 4.0 | 10.0 | 0.00 | 0.35 | 0.31 | 77 | 1016.7 |
| 20260505163324 | 60 | 3 | 5.0 | 10.0 | 0.00 | 0.35 | 0.31 | 75 | 1016.8 |
| 20260505163203 | 61 | 360 | 4.0 | 10.0 | 0.00 | 0.35 | 0.31 | 75 | 1016.8 |
| 20260505163124 | 61 | 357 | 4.0 | 10.0 | 0.00 | 0.35 | 0.31 | 75 | 1016.8 |
| 20260505163024 | 61 | 1 | 4.0 | 8.0 | 0.00 | 0.35 | 0.31 | 76 | 1016.7 |
| 20260505162903 | 61 | 2 | 4.0 | 8.0 | 0.00 | 0.35 | 0.31 | 76 | 1016.8 |
| 20260505162803 | 61 | 1 | 4.0 | 8.0 | 0.00 | 0.35 | 0.31 | 76 | 1016.6 |
| 20260505162703 | 61 | 352 | 4.0 | 8.0 | 0.00 | 0.35 | 0.31 | 76 | 1016.8 |
| 20260505162603 | 61 | 347 | 4.0 | 8.0 | 0.00 | 0.35 | 0.31 | 76 | 1016.7 |
| 20260505162503 | 61 | 343 | 4.0 | 8.0 | 0.00 | 0.35 | 0.31 | 76 | 1016.8 |
| 20260505162403 | 61 | 342 | 3.0 | 7.0 | 0.00 | 0.35 | 0.31 | 75 | 1016.8 |
| 20260505162324 | 61 | 342 | 3.0 | 7.0 | 0.00 | 0.35 | 0.31 | 75 | 1016.8 |
| 20260505162203 | 63 | 343 | 3.0 | 7.0 | 0.00 | 0.35 | 0.31 | 73 | 1016.6 |
| 20260505162103 | 63 | 343 | 3.0 | 8.0 | 0.00 | 0.35 | 0.31 | 73 | 1016.8 |
| 20260505162024 | 63 | 343 | 3.0 | 8.0 | 0.00 | 0.35 | 0.31 | 73 | 1016.8 |
| 20260505161924 | 63 | 340 | 3.0 | 8.0 | 0.00 | 0.35 | 0.31 | 74 | 1016.9 |
| 20260505161803 | 63 | 342 | 3.0 | 9.0 | 0.00 | 0.35 | 0.31 | 74 | 1016.7 |
| 20260505161703 | 63 | 343 | 3.0 | 9.0 | 0.00 | 0.35 | 0.31 | 71 | 1016.7 |
| 20260505161603 | 62 | 353 | 3.0 | 9.0 | 0.00 | 0.35 | 0.31 | 72 | 1016.8 |
| 20260505161503 | 62 | 360 | 3.0 | 9.0 | 0.00 | 0.35 | 0.31 | 72 | 1016.6 |
| 20260505161403 | 62 | 360 | 3.0 | 9.0 | 0.00 | 0.35 | 0.31 | 72 | 1016.8 |
| 20260505161303 | 62 | 358 | 3.0 | 9.0 | 0.00 | 0.35 | 0.31 | 74 | 1016.7 |
| 20260505161224 | 61 | 352 | 3.0 | 9.0 | 0.00 | 0.35 | 0.31 | 73 | 1017.0 |
| 20260505161103 | 61 | 349 | 3.0 | 9.0 | 0.00 | 0.35 | 0.31 | 73 | 1016.8 |
| 20260505161003 | 62 | 340 | 3.0 | 9.0 | 0.00 | 0.35 | 0.31 | 74 | 1016.8 |
| 20260505160903 | 62 | 338 | 4.0 | 9.0 | 0.00 | 0.35 | 0.31 | 74 | 1016.7 |
| 20260505160803 | 61 | 331 | 3.0 | 8.0 | 0.00 | 0.35 | 0.31 | 75 | 1016.9 |
| 20260505160703 | 61 | 332 | 3.0 | 8.0 | 0.00 | 0.35 | 0.31 | 75 | 1016.8 |
| 20260505160603 | 61 | 332 | 3.0 | 8.0 | 0.00 | 0.35 | 0.31 | 75 | 1016.7 |
| 20260505160503 | 61 | 324 | 3.0 | 8.0 | 0.00 | 0.35 | 0.31 | 74 | 1016.9 |
| 20260505160403 | 62 | 322 | 3.0 | 8.0 | 0.00 | 0.35 | 0.31 | 75 | 1016.8 |
| 20260505160324 | 62 | 322 | 3.0 | 8.0 | 0.00 | 0.35 | 0.31 | 75 | 1016.8 |
| 20260505160203 | 62 | 322 | 3.0 | 8.0 | 0.00 | 0.35 | 0.31 | 74 | 1016.6 |
| 20260505153324 | 63 | 343 | 3.0 | 10.0 | 0.00 | 0.35 | 0.31 | 76 | 1016.6 |
| 20260505153203 | 63 | 339 | 2.0 | 6.0 | 0.00 | 0.35 | 0.31 | 76 | 1016.9 |
| 20260505153103 | 63 | 339 | 2.0 | 6.0 | 0.00 | 0.35 | 0.31 | 76 | 1016.9 |
| 20260505153003 | 63 | 334 | 3.0 | 6.0 | 0.00 | 0.35 | 0.31 | 75 | 1016.7 |
| 20260505152903 | 63 | 337 | 3.0 | 6.0 | 0.00 | 0.35 | 0.31 | 75 | 1016.7 |
| 20260505152803 | 63 | 337 | 3.0 | 6.0 | 0.00 | 0.35 | 0.31 | 75 | 1016.8 |
| 20260505152703 | 63 | 334 | 3.0 | 6.0 | 0.00 | 0.35 | 0.31 | 75 | 1016.8 |
| 20260505152603 | 63 | 327 | 3.0 | 6.0 | 0.00 | 0.35 | 0.31 | 74 | 1016.8 |
| 20260505152503 | 62 | 325 | 3.0 | 6.0 | 0.00 | 0.35 | 0.31 | 75 | 1016.6 |
| 20260505152403 | 62 | 331 | 3.0 | 6.0 | 0.00 | 0.35 | 0.31 | 76 | 1016.6 |
| 20260505152305 | 62 | 328 | 3.0 | 6.0 | 0.00 | 0.35 | 0.31 | 74 | 1016.9 |
| 20260505152203 | 62 | 325 | 3.0 | 6.0 | 0.00 | 0.35 | 0.31 | 76 | 1016.7 |
| 20260505152103 | 62 | 316 | 3.0 | 8.0 | 0.00 | 0.35 | 0.31 | 75 | 1016.9 |
| 20260505152003 | 62 | 316 | 3.0 | 8.0 | 0.00 | 0.35 | 0.31 | 75 | 1016.6 |
| 20260505151903 | 62 | 317 | 3.0 | 8.0 | 0.00 | 0.35 | 0.31 | 75 | 1016.8 |
| 20260505151824 | 62 | 317 | 3.0 | 8.0 | 0.00 | 0.35 | 0.31 | 75 | 1016.8 |
| 20260505151704 | 63 | 322 | 3.0 | 8.0 | 0.00 | 0.35 | 0.31 | 76 | 1016.8 |
| 20260505151603 | 62 | 325 | 3.0 | 8.0 | 0.00 | 0.35 | 0.31 | 76 | 1016.8 |
| 20260505151524 | 62 | 325 | 3.0 | 8.0 | 0.00 | 0.35 | 0.31 | 76 | 1016.8 |
| 20260505151403 | 62 | 326 | 3.0 | 8.0 | 0.00 | 0.35 | 0.31 | 77 | 1016.8 |
| 20260505151303 | 62 | 321 | 3.0 | 8.0 | 0.00 | 0.35 | 0.31 | 78 | 1016.9 |
| 20260505151203 | 61 | 328 | 3.0 | 8.0 | 0.00 | 0.35 | 0.31 | 77 | 1017.0 |
| 20260505151104 | 61 | 328 | 3.0 | 8.0 | 0.00 | 0.35 | 0.31 | 77 | 1017.0 |
| 20260505151003 | 60 | 340 | 2.0 | 6.0 | 0.00 | 0.35 | 0.31 | 80 | 1016.9 |
| 20260505150903 | 60 | 345 | 2.0 | 6.0 | 0.00 | 0.35 | 0.31 | 79 | 1016.8 |
| 20260505150804 | 60 | 351 | 2.0 | 4.0 | 0.00 | 0.35 | 0.31 | 78 | 1016.6 |
| 20260505150703 | 61 | 353 | 2.0 | 4.0 | 0.00 | 0.35 | 0.31 | 77 | 1016.9 |
| 20260505150603 | 61 | 355 | 3.0 | 6.0 | 0.00 | 0.35 | 0.31 | 77 | 1016.9 |
| 20260505150524 | 62 | 356 | 3.0 | 6.0 | 0.00 | 0.35 | 0.31 | 77 | 1016.8 |
| 20260505150424 | 62 | 358 | 3.0 | 6.0 | 0.00 | 0.35 | 0.31 | 77 | 1016.9 |
| 20260505150303 | 62 | 1 | 3.0 | 6.0 | 0.00 | 0.35 | 0.31 | 79 | 1016.7 |
| 20260505150224 | 62 | 1 | 3.0 | 6.0 | 0.00 | 0.35 | 0.31 | 79 | 1016.7 |
| 20260505140603 | 61 | 354 | 3.0 | 8.0 | 0.00 | 0.35 | 0.31 | 75 | 1016.9 |
| 20260505140503 | 62 | 351 | 3.0 | 8.0 | 0.00 | 0.35 | 0.31 | 75 | 1016.8 |
| 20260505140403 | 62 | 349 | 3.0 | 8.0 | 0.00 | 0.35 | 0.31 | 76 | 1016.9 |
| 20260505140303 | 62 | 349 | 3.0 | 8.0 | 0.00 | 0.35 | 0.31 | 76 | 1016.9 |
| 20260505140203 | 62 | 345 | 3.0 | 7.0 | 0.00 | 0.35 | 0.31 | 77 | 1016.8 |
| 20260505130303 | 59 | 349 | 3.0 | 8.0 | 0.00 | 0.37 | 0.31 | 82 | 1016.7 |
| 20260505130203 | 59 | 352 | 3.0 | 8.0 | 0.00 | 0.37 | 0.31 | 80 | 1016.7 |
| 20260505130124 | 59 | 352 | 3.0 | 8.0 | 0.00 | 0.37 | 0.31 | 80 | 1016.7 |
| 20260505125024 | 57 | 338 | 2.0 | 4.0 | 0.00 | 0.37 | 0.31 | 88 | 1016.4 |
| 20260505124903 | 57 | 336 | 2.0 | 4.0 | 0.00 | 0.37 | 0.31 | 88 | 1016.8 |
| 20260505124803 | 57 | 334 | 2.0 | 4.0 | 0.00 | 0.38 | 0.31 | 88 | 1016.5 |
| 20260505124703 | 57 | 334 | 2.0 | 4.0 | 0.00 | 0.38 | 0.31 | 88 | 1016.8 |
| 20260505124603 | 57 | 327 | 2.0 | 4.0 | 0.00 | 0.38 | 0.31 | 88 | 1016.6 |
| 20260505124503 | 57 | 322 | 2.0 | 4.0 | 0.00 | 0.38 | 0.31 | 89 | 1016.6 |
| 20260505124403 | 57 | 321 | 2.0 | 4.0 | 0.00 | 0.38 | 0.31 | 89 | 1016.5 |
| 20260505124303 | 57 | 326 | 2.0 | 4.0 | 0.00 | 0.38 | 0.31 | 89 | 1016.6 |
| 20260505124203 | 57 | 322 | 2.0 | 4.0 | 0.00 | 0.38 | 0.31 | 89 | 1016.8 |
| 20260505124103 | 57 | 323 | 2.0 | 4.0 | 0.00 | 0.38 | 0.31 | 89 | 1016.6 |
| 20260505124003 | 57 | 323 | 2.0 | 4.0 | 0.00 | 0.38 | 0.31 | 89 | 1016.6 |
| 20260505123903 | 57 | 319 | 2.0 | 4.0 | 0.00 | 0.38 | 0.31 | 89 | 1016.5 |
| 20260505123803 | 57 | 324 | 2.0 | 7.0 | 0.00 | 0.38 | 0.31 | 89 | 1016.7 |
| 20260505123703 | 57 | 316 | 3.0 | 8.0 | 0.00 | 0.38 | 0.31 | 89 | 1016.7 |
| 20260505123624 | 57 | 298 | 3.0 | 9.0 | 0.00 | 0.38 | 0.31 | 88 | 1016.5 |
| 20260505123503 | 57 | 292 | 3.0 | 9.0 | 0.00 | 0.38 | 0.31 | 88 | 1016.5 |
| 20260505123403 | 57 | 296 | 3.0 | 9.0 | 0.00 | 0.38 | 0.31 | 87 | 1016.7 |
| 20260505123303 | 56 | 303 | 4.0 | 9.0 | 0.00 | 0.38 | 0.31 | 87 | 1016.8 |
| 20260505123203 | 57 | 306 | 4.0 | 9.0 | 0.00 | 0.38 | 0.31 | 86 | 1016.6 |
| 20260505123103 | 57 | 307 | 4.0 | 9.0 | 0.00 | 0.38 | 0.31 | 84 | 1016.7 |
| 20260505123003 | 58 | 313 | 4.0 | 9.0 | 0.00 | 0.38 | 0.31 | 84 | 1016.4 |
| 20260505122903 | 59 | 319 | 4.0 | 9.0 | 0.00 | 0.38 | 0.31 | 83 | 1016.8 |
| 20260505122803 | 59 | 319 | 4.0 | 9.0 | 0.00 | 0.38 | 0.31 | 83 | 1016.8 |
| 20260505122703 | 60 | 315 | 4.0 | 9.0 | 0.00 | 0.38 | 0.31 | 82 | 1016.5 |
| 20260505122602 | 60 | 322 | 4.0 | 9.0 | 0.00 | 0.38 | 0.31 | 80 | 1016.7 |
| 20260505122503 | 60 | 338 | 3.0 | 8.0 | 0.00 | 0.38 | 0.31 | 80 | 1016.6 |
| 20260505122403 | 60 | 350 | 4.0 | 8.0 | 0.00 | 0.38 | 0.31 | 80 | 1016.6 |
| 20260505122305 | 60 | 351 | 4.0 | 8.0 | 0.00 | 0.38 | 0.31 | 80 | 1016.6 |
| 20260505122202 | 60 | 354 | 3.0 | 8.0 | 0.00 | 0.38 | 0.31 | 81 | 1016.6 |
| 20260505122103 | 60 | 353 | 3.0 | 8.0 | 0.00 | 0.38 | 0.31 | 81 | 1016.6 |
| 20260505122003 | 59 | 353 | 3.0 | 8.0 | 0.00 | 0.38 | 0.31 | 82 | 1016.6 |
| 20260505121923 | 59 | 353 | 3.0 | 8.0 | 0.00 | 0.38 | 0.31 | 82 | 1016.6 |
| 20260505121824 | 60 | 353 | 3.0 | 8.0 | 0.00 | 0.38 | 0.31 | 80 | 1016.5 |
| 20260505121702 | 60 | 357 | 3.0 | 8.0 | 0.00 | 0.38 | 0.31 | 80 | 1016.8 |
| 20260505121602 | 61 | 356 | 3.0 | 8.0 | 0.00 | 0.38 | 0.31 | 78 | 1016.8 |
| 20260505121502 | 61 | 356 | 3.0 | 8.0 | 0.00 | 0.38 | 0.31 | 78 | 1016.8 |
| 20260505121402 | 62 | 356 | 3.0 | 8.0 | 0.00 | 0.38 | 0.31 | 77 | 1016.5 |
| 20260505121303 | 63 | 340 | 2.0 | 8.0 | 0.00 | 0.38 | 0.31 | 77 | 1016.6 |
| 20260505121202 | 63 | 334 | 3.0 | 8.0 | 0.00 | 0.38 | 0.31 | 79 | 1016.7 |
| 20260505121102 | 62 | 325 | 3.0 | 8.0 | 0.00 | 0.38 | 0.31 | 79 | 1016.8 |
| 20260505121023 | 62 | 326 | 3.0 | 8.0 | 0.00 | 0.38 | 0.31 | 78 | 1016.6 |
| 20260505120903 | 62 | 326 | 3.0 | 8.0 | 0.00 | 0.38 | 0.31 | 77 | 1016.5 |
| 20260505120802 | 62 | 320 | 3.0 | 8.0 | 0.00 | 0.38 | 0.31 | 76 | 1016.7 |
| 20260505120702 | 63 | 320 | 3.0 | 8.0 | 0.00 | 0.39 | 0.31 | 78 | 1016.5 |
| 20260505120623 | 62 | 318 | 3.0 | 8.0 | 0.00 | 0.39 | 0.31 | 79 | 1016.5 |
| 20260505120524 | 62 | 316 | 3.0 | 8.0 | 0.00 | 0.39 | 0.31 | 79 | 1016.6 |
| 20260505120403 | 62 | 317 | 3.0 | 8.0 | 0.00 | 0.39 | 0.31 | 77 | 1016.8 |
| 20260505120303 | 62 | 330 | 3.0 | 8.0 | 0.00 | 0.39 | 0.31 | 77 | 1016.6 |
| 20260505120203 | 62 | 335 | 3.0 | 7.0 | 0.00 | 0.39 | 0.31 | 78 | 1016.6 |
| 20260505120123 | 62 | 335 | 3.0 | 7.0 | 0.00 | 0.40 | 0.31 | 78 | 1016.6 |
| 20260505120003 | 62 | 347 | 2.0 | 7.0 | 0.00 | 0.40 | 0.31 | 79 | 1016.7 |
| 20260505115903 | 62 | 347 | 2.0 | 7.0 | 0.00 | 0.40 | 0.31 | 79 | 1016.7 |
| 20260505115802 | 62 | 348 | 3.0 | 7.0 | 0.00 | 0.40 | 0.31 | 79 | 1016.7 |
| 20260505115703 | 62 | 357 | 2.0 | 7.0 | 0.00 | 0.40 | 0.31 | 80 | 1016.7 |
| 20260505115603 | 61 | 353 | 2.0 | 7.0 | 0.00 | 0.40 | 0.31 | 79 | 1016.6 |
| 20260505115502 | 61 | 355 | 2.0 | 7.0 | 0.00 | 0.40 | 0.31 | 80 | 1016.6 |
| 20260505115403 | 61 | 360 | 2.0 | 7.0 | 0.00 | 0.40 | 0.31 | 82 | 1016.7 |
| 20260505115304 | 61 | 359 | 2.0 | 7.0 | 0.00 | 0.40 | 0.31 | 82 | 1016.7 |
| 20260505115202 | 60 | 355 | 2.0 | 4.0 | 0.00 | 0.40 | 0.31 | 83 | 1016.7 |
| 20260505115102 | 60 | 355 | 2.0 | 4.0 | 0.00 | 0.40 | 0.31 | 83 | 1016.6 |
| 20260505115003 | 60 | 355 | 2.0 | 4.0 | 0.00 | 0.40 | 0.31 | 84 | 1016.7 |
| 20260505114902 | 59 | 354 | 3.0 | 4.0 | 0.00 | 0.40 | 0.31 | 84 | 1016.8 |
| 20260505114803 | 58 | 353 | 3.0 | 6.0 | 0.00 | 0.40 | 0.31 | 84 | 1016.7 |
| 20260505114703 | 57 | 355 | 3.0 | 6.0 | 0.00 | 0.40 | 0.31 | 84 | 1016.7 |
| 20260505114624 | 57 | 355 | 3.0 | 6.0 | 0.00 | 0.40 | 0.31 | 84 | 1016.7 |
| 20260505114503 | 57 | 353 | 4.0 | 9.0 | 0.00 | 0.40 | 0.31 | 84 | 1016.7 |
| 20260505114403 | 57 | 353 | 4.0 | 9.0 | 0.00 | 0.40 | 0.31 | 84 | 1016.7 |
| 20260505114302 | 57 | 355 | 4.0 | 9.0 | 0.00 | 0.40 | 0.31 | 84 | 1016.7 |
| 20260505114224 | 57 | 356 | 4.0 | 9.0 | 0.00 | 0.40 | 0.31 | 84 | 1016.7 |
| 20260505114103 | 57 | 351 | 4.0 | 9.0 | 0.00 | 0.40 | 0.31 | 85 | 1016.6 |
| 20260505114002 | 57 | 350 | 4.0 | 9.0 | 0.00 | 0.41 | 0.31 | 84 | 1016.8 |
| 20260505113902 | 57 | 349 | 3.0 | 9.0 | 0.00 | 0.41 | 0.31 | 83 | 1016.7 |
| 20260505113803 | 57 | 349 | 3.0 | 9.0 | 0.00 | 0.41 | 0.31 | 83 | 1016.7 |
| 20260505113702 | 57 | 350 | 3.0 | 9.0 | 0.00 | 0.41 | 0.31 | 83 | 1016.7 |
| 20260505113623 | 57 | 349 | 3.0 | 9.0 | 0.00 | 0.41 | 0.31 | 82 | 1016.8 |
| 20260505113502 | 58 | 353 | 3.0 | 7.0 | 0.00 | 0.41 | 0.31 | 83 | 1016.6 |
| 20260505113403 | 58 | 349 | 2.0 | 7.0 | 0.00 | 0.41 | 0.31 | 84 | 1016.7 |
| 20260505113303 | 58 | 348 | 2.0 | 7.0 | 0.00 | 0.41 | 0.31 | 84 | 1016.6 |
| 20260505113202 | 58 | 344 | 2.0 | 7.0 | 0.00 | 0.41 | 0.31 | 84 | 1016.7 |
| 20260505113103 | 58 | 351 | 2.0 | 4.0 | 0.00 | 0.41 | 0.31 | 85 | 1016.8 |
| 20260505113003 | 58 | 345 | 2.0 | 4.0 | 0.00 | 0.41 | 0.31 | 85 | 1016.6 |
| 20260505112902 | 58 | 343 | 2.0 | 4.0 | 0.00 | 0.42 | 0.31 | 85 | 1016.7 |
| 20260505112802 | 59 | 342 | 1.0 | 4.0 | 0.00 | 0.42 | 0.31 | 84 | 1016.6 |
| 20260505112702 | 59 | 342 | 1.0 | 4.0 | 0.00 | 0.42 | 0.31 | 84 | 1016.6 |
| 20260505112603 | 59 | 340 | 1.0 | 4.0 | 0.00 | 0.43 | 0.31 | 84 | 1016.6 |
| 20260505112503 | 59 | 333 | 1.0 | 4.0 | 0.00 | 0.43 | 0.31 | 83 | 1016.8 |
| 20260505112402 | 59 | 335 | 2.0 | 4.0 | 0.00 | 0.44 | 0.31 | 83 | 1016.6 |
| 20260505112324 | 59 | 333 | 2.0 | 4.0 | 0.00 | 0.44 | 0.31 | 82 | 1016.7 |
| 20260505112202 | 58 | 330 | 2.0 | 4.0 | 0.00 | 0.44 | 0.31 | 82 | 1016.6 |
| 20260505112103 | 58 | 332 | 2.0 | 4.0 | 0.00 | 0.44 | 0.31 | 82 | 1016.5 |
| 20260505112002 | 59 | 336 | 2.0 | 4.0 | 0.01 | 0.44 | 0.31 | 83 | 1016.7 |
| 20260505111903 | 59 | 339 | 2.0 | 4.0 | 0.01 | 0.44 | 0.31 | 83 | 1016.6 |
| 20260505111803 | 58 | 340 | 2.0 | 4.0 | 0.02 | 0.44 | 0.31 | 84 | 1016.6 |
| 20260505111724 | 58 | 333 | 2.0 | 4.0 | 0.02 | 0.44 | 0.31 | 83 | 1016.5 |
| 20260505111623 | 58 | 337 | 2.0 | 4.0 | 0.03 | 0.44 | 0.31 | 83 | 1016.5 |
| 20260505111503 | 58 | 342 | 2.0 | 6.0 | 0.03 | 0.44 | 0.31 | 83 | 1016.5 |
| 20260505111403 | 59 | 342 | 2.0 | 6.0 | 0.03 | 0.44 | 0.31 | 83 | 1016.7 |
| 20260505111303 | 59 | 339 | 3.0 | 6.0 | 0.03 | 0.44 | 0.31 | 83 | 1016.7 |
| 20260505111203 | 60 | 330 | 3.0 | 8.0 | 0.03 | 0.44 | 0.31 | 84 | 1016.5 |
| 20260505111103 | 60 | 322 | 3.0 | 9.0 | 0.03 | 0.44 | 0.31 | 85 | 1016.4 |
| 20260505111003 | 60 | 320 | 3.0 | 9.0 | 0.03 | 0.44 | 0.31 | 85 | 1016.6 |
| 20260505110903 | 59 | 322 | 3.0 | 9.0 | 0.03 | 0.44 | 0.31 | 85 | 1016.7 |
| 20260505110803 | 59 | 322 | 3.0 | 9.0 | 0.03 | 0.44 | 0.31 | 85 | 1016.7 |
| 20260505110704 | 59 | 324 | 3.0 | 9.0 | 0.03 | 0.44 | 0.31 | 85 | 1016.5 |
| 20260505110605 | 59 | 332 | 4.0 | 9.0 | 0.03 | 0.44 | 0.31 | 85 | 1016.5 |
| 20260505110524 | 59 | 330 | 4.0 | 9.0 | 0.03 | 0.44 | 0.31 | 84 | 1016.5 |
| 20260505110404 | 60 | 327 | 3.0 | 9.0 | 0.03 | 0.44 | 0.31 | 84 | 1016.5 |
| 20260505110325 | 60 | 319 | 3.0 | 9.0 | 0.03 | 0.44 | 0.31 | 83 | 1016.6 |
| 20260505110206 | 60 | 320 | 3.0 | 9.0 | 0.03 | 0.44 | 0.31 | 83 | 1016.5 |
| 20260505102203 | 56 | 353 | 2.0 | 4.0 | 0.04 | 0.44 | 0.31 | 91 | 1016.6 |
| 20260505102103 | 57 | 353 | 2.0 | 4.0 | 0.04 | 0.44 | 0.31 | 91 | 1016.7 |
| 20260505102003 | 57 | 1 | 2.0 | 4.0 | 0.04 | 0.43 | 0.30 | 92 | 1016.5 |
| 20260505101924 | 57 | 1 | 2.0 | 4.0 | 0.04 | 0.43 | 0.30 | 92 | 1016.5 |
| 20260505101824 | 57 | 2 | 2.0 | 4.0 | 0.03 | 0.42 | 0.30 | 92 | 1016.7 |
| 20260505101703 | 59 | 4 | 2.0 | 4.0 | 0.03 | 0.42 | 0.29 | 93 | 1016.7 |
| 20260505101603 | 59 | 7 | 2.0 | 4.0 | 0.02 | 0.41 | 0.28 | 94 | 1016.6 |
| 20260505101503 | 59 | 7 | 2.0 | 4.0 | 0.02 | 0.41 | 0.28 | 94 | 1016.6 |
| 20260505101403 | 59 | 6 | 2.0 | 4.0 | 0.02 | 0.41 | 0.28 | 94 | 1016.6 |
| 20260505101303 | 59 | 8 | 2.0 | 4.0 | 0.03 | 0.41 | 0.28 | 95 | 1016.5 |
| 20260505101224 | 58 | 7 | 2.0 | 4.0 | 0.03 | 0.41 | 0.28 | 95 | 1016.5 |
| 20260505101103 | 58 | 7 | 2.0 | 4.0 | 0.03 | 0.41 | 0.28 | 96 | 1016.7 |
| 20260505101003 | 58 | 5 | 3.0 | 4.0 | 0.03 | 0.41 | 0.28 | 95 | 1016.6 |
| 20260505100903 | 58 | 2 | 3.0 | 7.0 | 0.04 | 0.41 | 0.28 | 95 | 1016.5 |
| 20260505100803 | 58 | 360 | 3.0 | 7.0 | 0.05 | 0.41 | 0.28 | 96 | 1016.5 |
| 20260505100703 | 58 | 359 | 3.0 | 7.0 | 0.05 | 0.41 | 0.28 | 96 | 1016.5 |
| 20260505100603 | 58 | 360 | 3.0 | 7.0 | 0.06 | 0.41 | 0.28 | 96 | 1016.4 |
| 20260505100524 | 58 | 359 | 3.0 | 7.0 | 0.06 | 0.41 | 0.28 | 95 | 1016.6 |
| 20260505100424 | 58 | 359 | 2.0 | 7.0 | 0.06 | 0.41 | 0.28 | 96 | 1016.2 |
| 20260505100303 | 56 | 354 | 2.0 | 7.0 | 0.06 | 0.41 | 0.28 | 96 | 1016.4 |
| 20260505100203 | 56 | 353 | 2.0 | 7.0 | 0.06 | 0.41 | 0.28 | 95 | 1016.3 |
| 20260505100003 | 56 | 349 | 2.0 | 7.0 | 0.06 | 0.41 | 0.28 | 95 | 1016.5 |
| 20260505095924 | 56 | 349 | 2.0 | 7.0 | 0.06 | 0.41 | 0.28 | 95 | 1016.5 |
| 20260505095824 | 56 | 348 | 1.0 | 7.0 | 0.06 | 0.41 | 0.28 | 95 | 1016.5 |
| 20260505095703 | 56 | 335 | 1.0 | 3.0 | 0.06 | 0.41 | 0.28 | 95 | 1016.5 |
| 20260505095624 | 56 | 335 | 1.0 | 3.0 | 0.06 | 0.41 | 0.28 | 95 | 1016.5 |
| 20260505095503 | 56 | 334 | 1.0 | 3.0 | 0.06 | 0.41 | 0.28 | 95 | 1016.4 |
| 20260505095403 | 56 | 330 | 1.0 | 3.0 | 0.06 | 0.41 | 0.28 | 95 | 1016.4 |
| 20260505095304 | 56 | 331 | 1.0 | 3.0 | 0.06 | 0.41 | 0.28 | 95 | 1016.5 |
| 20260505095203 | 56 | 327 | 2.0 | 3.0 | 0.06 | 0.41 | 0.28 | 96 | 1016.5 |
| 20260505095103 | 56 | 331 | 2.0 | 3.0 | 0.06 | 0.41 | 0.28 | 96 | 1016.4 |
| 20260505095003 | 56 | 335 | 2.0 | 3.0 | 0.06 | 0.41 | 0.28 | 96 | 1016.4 |
| 20260505094903 | 56 | 346 | 2.0 | 3.0 | 0.06 | 0.41 | 0.28 | 96 | 1016.4 |
| 20260505094824 | 56 | 349 | 2.0 | 3.0 | 0.06 | 0.41 | 0.28 | 97 | 1016.4 |
| 20260505094703 | 56 | 8 | 2.0 | 3.0 | 0.06 | 0.41 | 0.28 | 97 | 1016.4 |
| 20260505094603 | 56 | 13 | 2.0 | 3.0 | 0.06 | 0.41 | 0.28 | 97 | 1016.3 |
| 20260505094503 | 56 | 25 | 2.0 | 3.0 | 0.06 | 0.41 | 0.28 | 97 | 1016.3 |
| 20260505094403 | 56 | 39 | 2.0 | 3.0 | 0.06 | 0.41 | 0.28 | 97 | 1016.4 |
| 20260505094303 | 57 | 45 | 2.0 | 3.0 | 0.06 | 0.41 | 0.28 | 97 | 1016.4 |
| 20260505094203 | 57 | 55 | 1.0 | 3.0 | 0.06 | 0.41 | 0.28 | 98 | 1016.5 |
| 20260505094103 | 56 | 59 | 1.0 | 3.0 | 0.06 | 0.41 | 0.28 | 98 | 1016.3 |
| 20260505094003 | 56 | 60 | 1.0 | 3.0 | 0.06 | 0.41 | 0.28 | 98 | 1016.3 |
| 20260505093903 | 56 | 59 | 1.0 | 3.0 | 0.06 | 0.41 | 0.28 | 98 | 1016.3 |
| 20260505093803 | 56 | 61 | 1.0 | 3.0 | 0.06 | 0.41 | 0.28 | 98 | 1016.3 |
| 20260505093703 | 56 | 53 | 1.0 | 2.0 | 0.06 | 0.41 | 0.28 | 98 | 1016.3 |
| 20260505093603 | 56 | 53 | 1.0 | 2.0 | 0.06 | 0.41 | 0.28 | 98 | 1016.3 |
| 20260505093503 | 55 | 55 | 1.0 | 2.0 | 0.06 | 0.41 | 0.28 | 99 | 1016.4 |
| 20260505093403 | 55 | 46 | 0.0 | 2.0 | 0.06 | 0.41 | 0.28 | 98 | 1016.4 |
| 20260505093324 | 54 | 42 | 0.0 | 2.0 | 0.06 | 0.41 | 0.28 | 98 | 1016.6 |
| 20260505093203 | 54 | 41 | 0.0 | 1.0 | 0.06 | 0.41 | 0.28 | 98 | 1016.5 |
| 20260505093103 | 54 | 42 | 0.0 | 1.0 | 0.06 | 0.41 | 0.28 | 98 | 1016.4 |
| 20260505093003 | 54 | 47 | 0.0 | 1.0 | 0.06 | 0.41 | 0.28 | 98 | 1016.4 |
| 20260505092903 | 54 | 47 | 0.0 | 1.0 | 0.06 | 0.41 | 0.28 | 98 | 1016.5 |
| 20260505092803 | 54 | 47 | 0.0 | 1.0 | 0.06 | 0.41 | 0.28 | 98 | 1016.5 |
| 20260505092703 | 54 | 45 | 0.0 | 1.0 | 0.06 | 0.41 | 0.28 | 98 | 1016.5 |
| 20260505092603 | 54 | 45 | 0.0 | 1.0 | 0.06 | 0.41 | 0.28 | 98 | 1016.4 |
| 20260505092524 | 54 | 45 | 0.0 | 1.0 | 0.06 | 0.41 | 0.28 | 98 | 1016.4 |
| 20260505092403 | 54 | 45 | 0.0 | 1.0 | 0.06 | 0.41 | 0.28 | 98 | 1016.5 |
| 20260505092305 | 54 | 45 | 0.0 | 1.0 | 0.06 | 0.41 | 0.28 | 98 | 1016.5 |
| 20260505092203 | 54 | 45 | 0.0 | 1.0 | 0.05 | 0.40 | 0.27 | 98 | 1016.4 |
| 20260505092103 | 54 | 45 | 0.0 | 1.0 | 0.05 | 0.40 | 0.27 | 98 | 1016.4 |
| 20260505092003 | 54 | 42 | 0.0 | 2.0 | 0.04 | 0.39 | 0.26 | 99 | 1016.4 |
| 20260505091903 | 54 | 42 | 0.0 | 2.0 | 0.04 | 0.39 | 0.26 | 99 | 1016.4 |
| 20260505091803 | 54 | 42 | 0.0 | 2.0 | 0.04 | 0.39 | 0.26 | 99 | 1016.4 |
| 20260505091703 | 54 | 44 | 0.0 | 2.0 | 0.04 | 0.39 | 0.26 | 99 | 1016.3 |
| 20260505091603 | 55 | 56 | 1.0 | 3.0 | 0.04 | 0.39 | 0.26 | 99 | 1016.4 |
| 20260505091503 | 55 | 55 | 1.0 | 3.0 | 0.04 | 0.39 | 0.26 | 98 | 1016.4 |
| 20260505091403 | 55 | 54 | 1.0 | 3.0 | 0.04 | 0.39 | 0.26 | 99 | 1016.5 |
| 20260505091303 | 55 | 54 | 1.0 | 3.0 | 0.03 | 0.38 | 0.25 | 99 | 1016.3 |
| 20260505091203 | 55 | 54 | 1.0 | 3.0 | 0.03 | 0.38 | 0.25 | 99 | 1016.4 |
| 20260505091103 | 55 | 54 | 1.0 | 3.0 | 0.03 | 0.38 | 0.25 | 99 | 1016.5 |
| 20260505091003 | 55 | 54 | 1.0 | 3.0 | 0.03 | 0.38 | 0.25 | 99 | 1016.3 |
| 20260505090903 | 55 | 55 | 1.0 | 3.0 | 0.02 | 0.37 | 0.24 | 99 | 1016.4 |
| 20260505090803 | 55 | 56 | 1.0 | 3.0 | 0.01 | 0.36 | 0.23 | 99 | 1016.5 |
| 20260505090703 | 56 | 54 | 1.0 | 3.0 | 0.01 | 0.36 | 0.23 | 98 | 1016.3 |
| 20260505090603 | 58 | 47 | 1.0 | 3.0 | 0.00 | 0.35 | 0.22 | 99 | 1016.3 |
| 20260505090503 | 58 | 46 | 1.0 | 3.0 | 0.00 | 0.35 | 0.22 | 99 | 1016.2 |
| 20260505090403 | 58 | 47 | 1.0 | 3.0 | 0.00 | 0.35 | 0.22 | 99 | 1016.3 |
| 20260505090303 | 58 | 47 | 1.0 | 3.0 | 0.00 | 0.35 | 0.22 | 99 | 1016.3 |
| 20260505090203 | 58 | 47 | 1.0 | 3.0 | 0.00 | 0.35 | 0.22 | 99 | 1016.3 |
| 20260505090003 | 58 | 44 | 1.0 | 3.0 | 0.00 | 0.35 | 0.22 | 99 | 1016.2 |
| 20260505085903 | 58 | 44 | 1.0 | 3.0 | 0.00 | 0.35 | 0.22 | 99 | 1016.3 |
| 20260505085803 | 58 | 43 | 1.0 | 3.0 | 0.00 | 0.35 | 0.22 | 99 | 1016.3 |
| 20260505085724 | 58 | 40 | 1.0 | 3.0 | 0.00 | 0.35 | 0.22 | 99 | 1016.2 |
| 20260505085624 | 57 | 38 | 1.0 | 2.0 | 0.00 | 0.35 | 0.22 | 99 | 1016.4 |
| 20260505085503 | 57 | 45 | 1.0 | 2.0 | 0.00 | 0.35 | 0.22 | 99 | 1016.3 |
| 20260505085403 | 57 | 48 | 1.0 | 3.0 | 0.00 | 0.35 | 0.22 | 99 | 1016.2 |
| 20260505085304 | 57 | 53 | 1.0 | 3.0 | 0.00 | 0.35 | 0.22 | 99 | 1016.3 |
| 20260505085203 | 57 | 62 | 1.0 | 3.0 | 0.00 | 0.35 | 0.22 | 99 | 1016.1 |
| 20260505085124 | 57 | 62 | 1.0 | 3.0 | 0.00 | 0.35 | 0.22 | 99 | 1016.3 |
| 20260505085003 | 57 | 61 | 1.0 | 4.0 | 0.00 | 0.35 | 0.22 | 99 | 1016.5 |
| 20260505084903 | 56 | 64 | 2.0 | 4.0 | 0.00 | 0.35 | 0.22 | 99 | 1016.4 |
| 20260505084803 | 56 | 67 | 2.0 | 4.0 | 0.00 | 0.35 | 0.22 | 99 | 1016.1 |
| 20260505084703 | 55 | 66 | 2.0 | 4.0 | 0.00 | 0.35 | 0.22 | 99 | 1016.2 |
| 20260505084603 | 55 | 72 | 2.0 | 4.0 | 0.00 | 0.35 | 0.22 | 99 | 1016.2 |
| 20260505084524 | 55 | 72 | 2.0 | 4.0 | 0.00 | 0.35 | 0.22 | 99 | 1016.2 |
| 20260505084403 | 55 | 75 | 2.0 | 4.0 | 0.00 | 0.35 | 0.22 | 99 | 1016.2 |
| 20260505084303 | 54 | 75 | 2.0 | 4.0 | 0.00 | 0.35 | 0.22 | 99 | 1016.3 |
| 20260505084203 | 54 | 69 | 2.0 | 4.0 | 0.00 | 0.35 | 0.22 | 99 | 1016.3 |
| 20260505084103 | 54 | 70 | 2.0 | 4.0 | 0.00 | 0.35 | 0.22 | 99 | 1016.4 |
| 20260505084003 | 54 | 70 | 2.0 | 4.0 | 0.00 | 0.35 | 0.22 | 99 | 1016.4 |
| 20260505083903 | 54 | 73 | 2.0 | 4.0 | 0.00 | 0.35 | 0.22 | 99 | 1016.5 |
| 20260505083803 | 53 | 75 | 2.0 | 4.0 | 0.00 | 0.35 | 0.22 | 99 | 1016.3 |
| 20260505083703 | 53 | 74 | 2.0 | 4.0 | 0.00 | 0.35 | 0.22 | 99 | 1016.2 |
| 20260505083603 | 53 | 78 | 2.0 | 4.0 | 0.00 | 0.35 | 0.22 | 99 | 1016.3 |
| 20260505083503 | 53 | 72 | 2.0 | 3.0 | 0.00 | 0.35 | 0.22 | 99 | 1016.3 |
| 20260505083403 | 52 | 68 | 2.0 | 3.0 | 0.01 | 0.35 | 0.22 | 99 | 1016.4 |
| 20260505083303 | 51 | 66 | 2.0 | 3.0 | 0.01 | 0.35 | 0.22 | 99 | 1016.4 |
| 20260505083203 | 51 | 63 | 2.0 | 3.0 | 0.01 | 0.35 | 0.22 | 99 | 1016.4 |
| 20260505083103 | 51 | 65 | 2.0 | 3.0 | 0.01 | 0.35 | 0.22 | 99 | 1016.3 |
| 20260505083003 | 51 | 62 | 2.0 | 3.0 | 0.01 | 0.35 | 0.22 | 99 | 1016.2 |
| 20260505082903 | 51 | 61 | 2.0 | 3.0 | 0.01 | 0.35 | 0.22 | 99 | 1016.4 |
| 20260505082803 | 51 | 57 | 2.0 | 2.0 | 0.01 | 0.35 | 0.22 | 99 | 1016.4 |
| 20260505082703 | 51 | 55 | 1.0 | 2.0 | 0.01 | 0.35 | 0.22 | 99 | 1016.3 |
| 20260505082624 | 51 | 55 | 1.0 | 2.0 | 0.01 | 0.35 | 0.22 | 99 | 1016.3 |
| 20260505082503 | 50 | 52 | 1.0 | 2.0 | 0.01 | 0.35 | 0.22 | 99 | 1016.3 |
| 20260505082403 | 50 | 52 | 1.0 | 2.0 | 0.01 | 0.35 | 0.22 | 99 | 1016.3 |
| 20260505082304 | 50 | 51 | 1.0 | 2.0 | 0.01 | 0.35 | 0.22 | 99 | 1016.2 |
| 20260505082203 | 50 | 53 | 1.0 | 2.0 | 0.02 | 0.35 | 0.22 | 99 | 1016.3 |
| 20260505082103 | 50 | 52 | 1.0 | 3.0 | 0.02 | 0.35 | 0.22 | 99 | 1016.1 |
| 20260505082003 | 50 | 52 | 1.0 | 3.0 | 0.02 | 0.35 | 0.22 | 99 | 1016.4 |
| 20260505081903 | 50 | 52 | 1.0 | 3.0 | 0.02 | 0.35 | 0.22 | 99 | 1016.4 |
| 20260505081803 | 50 | 55 | 1.0 | 3.0 | 0.02 | 0.35 | 0.22 | 99 | 1016.3 |
| 20260505081703 | 50 | 57 | 2.0 | 3.0 | 0.02 | 0.35 | 0.22 | 99 | 1016.4 |
| 20260505081603 | 50 | 57 | 2.0 | 3.0 | 0.02 | 0.35 | 0.22 | 99 | 1016.1 |
| 20260505081503 | 50 | 58 | 2.0 | 3.0 | 0.02 | 0.35 | 0.22 | 99 | 1016.3 |
| 20260505081424 | 50 | 59 | 2.0 | 3.0 | 0.02 | 0.35 | 0.22 | 99 | 1016.4 |
| 20260505081303 | 50 | 59 | 2.0 | 3.0 | 0.02 | 0.35 | 0.22 | 99 | 1016.4 |
| 20260505081203 | 50 | 57 | 2.0 | 3.0 | 0.02 | 0.35 | 0.22 | 99 | 1016.3 |
| 20260505081103 | 50 | 57 | 2.0 | 3.0 | 0.02 | 0.35 | 0.22 | 99 | 1016.5 |
| 20260505081003 | 50 | 55 | 2.0 | 3.0 | 0.03 | 0.35 | 0.22 | 99 | 1016.4 |
| 20260505080924 | 50 | 55 | 2.0 | 3.0 | 0.03 | 0.35 | 0.22 | 99 | 1016.4 |
| 20260505080803 | 50 | 59 | 1.0 | 3.0 | 0.03 | 0.35 | 0.22 | 99 | 1016.3 |
| 20260505080703 | 50 | 55 | 1.0 | 2.0 | 0.04 | 0.35 | 0.22 | 99 | 1016.3 |
| 20260505080603 | 50 | 54 | 1.0 | 2.0 | 0.04 | 0.35 | 0.22 | 99 | 1016.4 |
| 20260505080503 | 50 | 54 | 1.0 | 2.0 | 0.05 | 0.35 | 0.22 | 99 | 1016.5 |
| 20260505080403 | 50 | 57 | 1.0 | 2.0 | 0.05 | 0.35 | 0.22 | 99 | 1016.5 |
| 20260505080303 | 50 | 57 | 1.0 | 2.0 | 0.05 | 0.35 | 0.22 | 99 | 1016.5 |
| 20260505080203 | 50 | 58 | 1.0 | 2.0 | 0.05 | 0.35 | 0.22 | 99 | 1016.5 |
| 20260505080103 | 50 | 59 | 1.0 | 2.0 | 0.05 | 0.35 | 0.22 | 99 | 1016.4 |
| 20260505080003 | 50 | 68 | 1.0 | 3.0 | 0.05 | 0.35 | 0.22 | 99 | 1016.3 |
| 20260505075924 | 50 | 68 | 1.0 | 3.0 | 0.05 | 0.35 | 0.22 | 99 | 1016.4 |
| 20260505075803 | 50 | 80 | 2.0 | 4.0 | 0.05 | 0.35 | 0.22 | 99 | 1016.4 |
| 20260505075703 | 50 | 78 | 2.0 | 4.0 | 0.05 | 0.35 | 0.22 | 99 | 1016.4 |
| 20260505075603 | 50 | 77 | 2.0 | 4.0 | 0.05 | 0.35 | 0.22 | 99 | 1016.3 |
| 20260505075524 | 50 | 81 | 2.0 | 4.0 | 0.05 | 0.35 | 0.22 | 99 | 1016.4 |
| 20260505075403 | 50 | 80 | 2.0 | 4.0 | 0.05 | 0.35 | 0.22 | 99 | 1016.5 |
| 20260505075304 | 50 | 79 | 2.0 | 4.0 | 0.05 | 0.35 | 0.22 | 99 | 1016.5 |
| 20260505075203 | 50 | 81 | 1.0 | 4.0 | 0.05 | 0.35 | 0.22 | 99 | 1016.4 |
| 20260505075103 | 50 | 84 | 1.0 | 4.0 | 0.05 | 0.35 | 0.22 | 99 | 1016.4 |
| 20260505075003 | 50 | 77 | 1.0 | 4.0 | 0.05 | 0.35 | 0.22 | 99 | 1016.7 |
| 20260505074924 | 50 | 77 | 1.0 | 4.0 | 0.05 | 0.35 | 0.22 | 99 | 1016.7 |
| 20260505074803 | 50 | 56 | 1.0 | 2.0 | 0.05 | 0.35 | 0.22 | 99 | 1016.4 |
| 20260505074703 | 50 | 58 | 1.0 | 2.0 | 0.05 | 0.35 | 0.22 | 99 | 1016.4 |
| 20260505074603 | 50 | 59 | 1.0 | 2.0 | 0.05 | 0.35 | 0.22 | 99 | 1016.4 |
| 20260505074503 | 50 | 50 | 0.0 | 2.0 | 0.05 | 0.35 | 0.22 | 99 | 1016.3 |
| 20260505074403 | 50 | 50 | 0.0 | 2.0 | 0.05 | 0.35 | 0.22 | 99 | 1016.3 |
| 20260505074303 | 50 | 47 | 0.0 | 1.0 | 0.06 | 0.35 | 0.22 | 99 | 1016.4 |
| 20260505074203 | 50 | 44 | 0.0 | 1.0 | 0.06 | 0.35 | 0.22 | 99 | 1016.2 |
| 20260505074103 | 49 | 48 | 1.0 | 2.0 | 0.06 | 0.35 | 0.22 | 99 | 1016.5 |
| 20260505074003 | 49 | 51 | 1.0 | 2.0 | 0.06 | 0.35 | 0.22 | 99 | 1016.5 |
| 20260505073903 | 49 | 51 | 1.0 | 2.0 | 0.06 | 0.35 | 0.22 | 99 | 1016.5 |
| 20260505073803 | 49 | 53 | 1.0 | 2.0 | 0.06 | 0.35 | 0.22 | 99 | 1016.5 |
| 20260505073703 | 49 | 53 | 1.0 | 2.0 | 0.06 | 0.35 | 0.22 | 99 | 1016.3 |
| 20260505073624 | 49 | 52 | 1.0 | 2.0 | 0.06 | 0.35 | 0.22 | 99 | 1016.3 |
| 20260505073503 | 49 | 54 | 1.0 | 2.0 | 0.07 | 0.35 | 0.22 | 99 | 1016.4 |
| 20260505073403 | 49 | 54 | 1.0 | 2.0 | 0.06 | 0.34 | 0.21 | 99 | 1016.5 |
| 20260505073303 | 49 | 55 | 1.0 | 2.0 | 0.06 | 0.34 | 0.21 | 99 | 1016.5 |
| 20260505073204 | 49 | 54 | 1.0 | 2.0 | 0.06 | 0.34 | 0.21 | 99 | 1016.6 |
| 20260505073103 | 49 | 53 | 1.0 | 2.0 | 0.07 | 0.34 | 0.21 | 99 | 1016.4 |
| 20260505073003 | 49 | 53 | 1.0 | 2.0 | 0.07 | 0.34 | 0.21 | 99 | 1016.4 |
| 20260505072903 | 49 | 52 | 1.0 | 2.0 | 0.08 | 0.34 | 0.21 | 99 | 1016.4 |
| 20260505072803 | 49 | 51 | 1.0 | 2.0 | 0.08 | 0.34 | 0.21 | 99 | 1016.5 |
| 20260505072703 | 49 | 51 | 1.0 | 2.0 | 0.08 | 0.34 | 0.21 | 99 | 1016.4 |
| 20260505072603 | 49 | 51 | 1.0 | 2.0 | 0.09 | 0.34 | 0.21 | 99 | 1016.4 |
| 20260505072503 | 50 | 48 | 1.0 | 2.0 | 0.09 | 0.34 | 0.21 | 99 | 1016.4 |
| 20260505072424 | 50 | 48 | 1.0 | 2.0 | 0.10 | 0.34 | 0.21 | 99 | 1016.4 |
| 20260505072304 | 49 | 48 | 1.0 | 2.0 | 0.10 | 0.34 | 0.21 | 99 | 1016.4 |
| 20260505072203 | 49 | 49 | 1.0 | 2.0 | 0.09 | 0.33 | 0.20 | 99 | 1016.2 |
| 20260505072103 | 49 | 48 | 1.0 | 2.0 | 0.10 | 0.33 | 0.20 | 99 | 1016.1 |
| 20260505072003 | 49 | 50 | 1.0 | 2.0 | 0.10 | 0.33 | 0.20 | 99 | 1016.2 |
| 20260505071924 | 49 | 47 | 1.0 | 2.0 | 0.10 | 0.33 | 0.20 | 99 | 1016.3 |
| 20260505071803 | 49 | 47 | 1.0 | 2.0 | 0.10 | 0.33 | 0.20 | 99 | 1016.5 |
| 20260505071703 | 49 | 46 | 1.0 | 2.0 | 0.11 | 0.33 | 0.20 | 99 | 1016.4 |
| 20260505071624 | 49 | 47 | 1.0 | 2.0 | 0.11 | 0.33 | 0.20 | 99 | 1016.4 |
| 20260505071524 | 49 | 47 | 1.0 | 2.0 | 0.11 | 0.33 | 0.20 | 99 | 1016.3 |
| 20260505071403 | 49 | 45 | 1.0 | 2.0 | 0.11 | 0.33 | 0.20 | 99 | 1016.5 |
| 20260505071303 | 49 | 44 | 1.0 | 2.0 | 0.11 | 0.33 | 0.20 | 99 | 1016.5 |
| 20260505071224 | 49 | 44 | 1.0 | 2.0 | 0.11 | 0.33 | 0.20 | 99 | 1016.3 |
| 20260505071124 | 49 | 48 | 1.0 | 2.0 | 0.11 | 0.33 | 0.20 | 99 | 1016.6 |
| 20260505071003 | 49 | 46 | 1.0 | 2.0 | 0.10 | 0.32 | 0.19 | 99 | 1016.3 |
| 20260505070903 | 49 | 48 | 1.0 | 2.0 | 0.10 | 0.32 | 0.19 | 99 | 1016.5 |
| 20260505070803 | 49 | 49 | 1.0 | 2.0 | 0.10 | 0.32 | 0.19 | 99 | 1016.2 |
| 20260505070703 | 49 | 52 | 1.0 | 2.0 | 0.09 | 0.31 | 0.18 | 99 | 1016.3 |
| 20260505070603 | 49 | 54 | 1.0 | 2.0 | 0.10 | 0.31 | 0.18 | 99 | 1016.4 |
| 20260505070503 | 49 | 56 | 1.0 | 2.0 | 0.09 | 0.30 | 0.17 | 99 | 1016.2 |
| 20260505070403 | 49 | 57 | 1.0 | 2.0 | 0.09 | 0.30 | 0.17 | 99 | 1016.2 |
| 20260505070303 | 49 | 56 | 1.0 | 2.0 | 0.10 | 0.30 | 0.17 | 99 | 1016.3 |
| 20260505070203 | 49 | 58 | 2.0 | 2.0 | 0.10 | 0.30 | 0.17 | 99 | 1016.1 |
| 20260505070003 | 49 | 58 | 2.0 | 2.0 | 0.11 | 0.30 | 0.17 | 99 | 1016.1 |
| 20260505065903 | 49 | 58 | 2.0 | 2.0 | 0.12 | 0.30 | 0.17 | 99 | 1016.1 |
| 20260505065824 | 49 | 58 | 1.0 | 2.0 | 0.12 | 0.30 | 0.17 | 99 | 1016.1 |
| 20260505065703 | 49 | 56 | 1.0 | 2.0 | 0.13 | 0.30 | 0.17 | 99 | 1016.1 |
| 20260505065603 | 49 | 54 | 1.0 | 2.0 | 0.13 | 0.30 | 0.17 | 99 | 1016.1 |
| 20260505065503 | 49 | 52 | 1.0 | 2.0 | 0.13 | 0.30 | 0.17 | 99 | 1016.0 |
| 20260505065403 | 49 | 50 | 1.0 | 2.0 | 0.13 | 0.30 | 0.17 | 99 | 1016.3 |
| 20260505065304 | 49 | 49 | 1.0 | 2.0 | 0.14 | 0.30 | 0.17 | 99 | 1016.2 |
| 20260505065203 | 49 | 49 | 1.0 | 2.0 | 0.14 | 0.30 | 0.17 | 99 | 1016.2 |
| 20260505065103 | 49 | 46 | 1.0 | 2.0 | 0.14 | 0.30 | 0.17 | 99 | 1016.2 |
| 20260505065024 | 49 | 43 | 1.0 | 2.0 | 0.14 | 0.30 | 0.17 | 99 | 1016.1 |
| 20260505064903 | 49 | 42 | 1.0 | 2.0 | 0.15 | 0.30 | 0.17 | 99 | 1016.0 |
| 20260505064803 | 49 | 42 | 1.0 | 2.0 | 0.15 | 0.30 | 0.17 | 99 | 1016.1 |
| 20260505064724 | 49 | 42 | 1.0 | 1.0 | 0.15 | 0.30 | 0.17 | 99 | 1016.1 |
| 20260505064624 | 49 | 42 | 1.0 | 1.0 | 0.15 | 0.30 | 0.17 | 99 | 1016.1 |
| 20260505064503 | 49 | 40 | 1.0 | 1.0 | 0.15 | 0.30 | 0.17 | 99 | 1016.2 |
| 20260505064403 | 49 | 40 | 1.0 | 1.0 | 0.15 | 0.30 | 0.17 | 99 | 1016.2 |
| 20260505064324 | 49 | 40 | 1.0 | 1.0 | 0.14 | 0.29 | 0.17 | 99 | 1016.2 |
| 20260505064203 | 49 | 39 | 0.0 | 1.0 | 0.14 | 0.29 | 0.16 | 99 | 1016.2 |
| 20260505064103 | 49 | 38 | 0.0 | 1.0 | 0.14 | 0.29 | 0.16 | 99 | 1016.1 |
| 20260505064003 | 49 | 38 | 0.0 | 1.0 | 0.15 | 0.29 | 0.16 | 99 | 1016.1 |
| 20260505063903 | 49 | 38 | 0.0 | 1.0 | 0.15 | 0.29 | 0.16 | 99 | 1016.1 |
| 20260505063803 | 49 | 37 | 0.0 | 1.0 | 0.15 | 0.29 | 0.16 | 99 | 1016.2 |
| 20260505063703 | 49 | 37 | 0.0 | 1.0 | 0.15 | 0.29 | 0.16 | 99 | 1016.1 |
| 20260505063603 | 49 | 37 | 0.0 | 1.0 | 0.15 | 0.29 | 0.16 | 99 | 1016.0 |
| 20260505063524 | 49 | 37 | 0.0 | 1.0 | 0.14 | 0.28 | 0.15 | 99 | 1016.1 |
| 20260505063403 | 49 | 37 | 0.0 | 1.0 | 0.14 | 0.28 | 0.15 | 99 | 1016.1 |
| 20260505063303 | 49 | 37 | 0.0 | 1.0 | 0.14 | 0.28 | 0.15 | 99 | 1016.1 |
| 20260505063224 | 49 | 0 | 0.0 | 0.0 | 0.14 | 0.28 | 0.15 | 99 | 1016.1 |
| 20260505063103 | 49 | 0 | 0.0 | 0.0 | 0.13 | 0.27 | 0.14 | 99 | 1016.1 |
| 20260505063003 | 49 | 0 | 0.0 | 0.0 | 0.13 | 0.27 | 0.14 | 99 | 1016.1 |
| 20260505062924 | 49 | 0 | 0.0 | 0.0 | 0.12 | 0.26 | 0.13 | 99 | 1016.1 |
| 20260505062824 | 49 | 39 | 0.0 | 1.0 | 0.12 | 0.26 | 0.13 | 99 | 1016.0 |
| 20260505062703 | 49 | 39 | 0.0 | 1.0 | 0.12 | 0.26 | 0.13 | 99 | 1016.1 |
| 20260505062603 | 49 | 39 | 0.0 | 1.0 | 0.11 | 0.25 | 0.12 | 99 | 1016.2 |
| 20260505062503 | 49 | 39 | 0.0 | 1.0 | 0.11 | 0.25 | 0.12 | 99 | 1016.0 |
| 20260505062403 | 49 | 39 | 0.0 | 1.0 | 0.10 | 0.24 | 0.11 | 99 | 1016.1 |
| 20260505062304 | 49 | 39 | 0.0 | 1.0 | 0.10 | 0.24 | 0.11 | 99 | 1016.2 |
| 20260505062203 | 49 | 40 | 0.0 | 1.0 | 0.10 | 0.24 | 0.11 | 99 | 1016.1 |
| 20260505062103 | 49 | 51 | 0.0 | 2.0 | 0.09 | 0.23 | 0.10 | 99 | 1016.2 |
| 20260505062003 | 49 | 53 | 0.0 | 2.0 | 0.09 | 0.23 | 0.10 | 99 | 1016.1 |
| 20260505061903 | 49 | 52 | 0.0 | 2.0 | 0.10 | 0.23 | 0.10 | 99 | 1016.1 |
| 20260505061803 | 49 | 53 | 0.0 | 2.0 | 0.10 | 0.23 | 0.10 | 99 | 1016.1 |
| 20260505061703 | 49 | 53 | 1.0 | 2.0 | 0.09 | 0.22 | 0.09 | 99 | 1016.2 |
| 20260505061603 | 49 | 52 | 1.0 | 2.0 | 0.09 | 0.22 | 0.09 | 99 | 1016.1 |
| 20260505061503 | 49 | 52 | 1.0 | 2.0 | 0.09 | 0.22 | 0.09 | 99 | 1016.1 |
| 20260505061403 | 49 | 52 | 1.0 | 2.0 | 0.09 | 0.22 | 0.09 | 99 | 1016.0 |
| 20260505061303 | 49 | 52 | 1.0 | 2.0 | 0.09 | 0.22 | 0.09 | 99 | 1016.1 |
| 20260505061203 | 49 | 52 | 1.0 | 2.0 | 0.09 | 0.22 | 0.09 | 99 | 1015.9 |
| 20260505061124 | 48 | 53 | 1.0 | 2.0 | 0.09 | 0.22 | 0.09 | 99 | 1015.9 |
| 20260505061003 | 48 | 51 | 1.0 | 2.0 | 0.09 | 0.22 | 0.09 | 99 | 1016.1 |
| 20260505060903 | 48 | 50 | 1.0 | 2.0 | 0.09 | 0.22 | 0.09 | 99 | 1016.0 |
| 20260505060803 | 48 | 49 | 1.0 | 2.0 | 0.09 | 0.22 | 0.09 | 99 | 1016.2 |
| 20260505060703 | 48 | 49 | 1.0 | 2.0 | 0.09 | 0.22 | 0.09 | 99 | 1016.0 |
| 20260505060603 | 48 | 48 | 1.0 | 2.0 | 0.08 | 0.21 | 0.08 | 99 | 1015.8 |
| 20260505060524 | 48 | 54 | 1.0 | 2.0 | 0.08 | 0.21 | 0.08 | 99 | 1016.0 |
| 20260505060403 | 48 | 52 | 1.0 | 2.0 | 0.08 | 0.21 | 0.08 | 99 | 1016.1 |
| 20260505060303 | 48 | 51 | 1.0 | 2.0 | 0.07 | 0.20 | 0.07 | 99 | 1016.1 |
| 20260505060203 | 48 | 50 | 1.0 | 2.0 | 0.07 | 0.20 | 0.07 | 99 | 1016.1 |
| 20260505060003 | 48 | 49 | 1.0 | 2.0 | 0.06 | 0.19 | 0.06 | 99 | 1016.2 |
| 20260505055903 | 48 | 48 | 1.0 | 2.0 | 0.05 | 0.18 | 0.05 | 99 | 1015.9 |
| 20260505055803 | 48 | 52 | 1.0 | 2.0 | 0.05 | 0.18 | 0.05 | 99 | 1016.0 |
| 20260505055703 | 48 | 52 | 1.0 | 2.0 | 0.04 | 0.17 | 0.04 | 98 | 1016.0 |
| 20260505055603 | 48 | 52 | 1.0 | 2.0 | 0.04 | 0.17 | 0.04 | 98 | 1016.0 |
| 20260505055503 | 48 | 51 | 1.0 | 2.0 | 0.04 | 0.17 | 0.04 | 99 | 1015.8 |
| 20260505055403 | 48 | 45 | 1.0 | 2.0 | 0.04 | 0.17 | 0.04 | 99 | 1016.0 |
| 20260505055304 | 48 | 45 | 1.0 | 2.0 | 0.03 | 0.16 | 0.03 | 99 | 1016.0 |
| 20260505055224 | 48 | 46 | 1.0 | 2.0 | 0.03 | 0.16 | 0.03 | 98 | 1016.0 |
| 20260505055103 | 48 | 45 | 1.0 | 2.0 | 0.03 | 0.16 | 0.03 | 99 | 1015.9 |
| 20260505055024 | 48 | 50 | 1.0 | 2.0 | 0.03 | 0.16 | 0.03 | 99 | 1015.9 |
| 20260505054903 | 48 | 50 | 1.0 | 2.0 | 0.02 | 0.15 | 0.02 | 99 | 1015.8 |
| 20260505054824 | 48 | 50 | 1.0 | 2.0 | 0.02 | 0.15 | 0.02 | 99 | 1015.8 |
| 20260505054724 | 48 | 50 | 1.0 | 2.0 | 0.02 | 0.15 | 0.02 | 99 | 1015.8 |
| 20260505054624 | 48 | 47 | 1.0 | 2.0 | 0.02 | 0.15 | 0.02 | 99 | 1016.1 |
| 20260505054503 | 48 | 48 | 1.0 | 2.0 | 0.02 | 0.15 | 0.02 | 99 | 1016.1 |
| 20260505054403 | 48 | 48 | 1.0 | 2.0 | 0.02 | 0.15 | 0.02 | 99 | 1016.0 |
| 20260505054303 | 48 | 47 | 1.0 | 2.0 | 0.02 | 0.15 | 0.02 | 99 | 1016.1 |
| 20260505054224 | 48 | 47 | 1.0 | 2.0 | 0.02 | 0.15 | 0.02 | 99 | 1016.1 |
| 20260505054124 | 48 | 48 | 1.0 | 2.0 | 0.02 | 0.15 | 0.02 | 99 | 1016.0 |
| 20260505054004 | 48 | 41 | 1.0 | 1.0 | 0.01 | 0.14 | 0.01 | 99 | 1016.0 |
| 20260505053924 | 48 | 41 | 1.0 | 1.0 | 0.01 | 0.14 | 0.01 | 99 | 1016.0 |
| 20260505053824 | 48 | 42 | 0.0 | 1.0 | 0.01 | 0.14 | 0.01 | 99 | 1016.1 |
| 20260505053703 | 48 | 42 | 0.0 | 1.0 | 0.01 | 0.14 | 0.01 | 99 | 1015.9 |
| 20260505053603 | 48 | 39 | 0.0 | 1.0 | 0.01 | 0.14 | 0.01 | 99 | 1016.0 |
| 20260505053503 | 48 | 39 | 0.0 | 1.0 | 0.01 | 0.14 | 0.01 | 99 | 1015.9 |
| 20260505053403 | 48 | 40 | 0.0 | 1.0 | 0.01 | 0.14 | 0.01 | 99 | 1016.0 |
| 20260505053303 | 48 | 39 | 0.0 | 1.0 | 0.01 | 0.14 | 0.01 | 99 | 1016.0 |
| 20260505053224 | 48 | 40 | 0.0 | 1.0 | 0.01 | 0.14 | 0.01 | 99 | 1016.0 |
| 20260505053103 | 48 | 40 | 0.0 | 1.0 | 0.01 | 0.14 | 0.01 | 99 | 1015.9 |
| 20260505053003 | 48 | 40 | 0.0 | 1.0 | 0.01 | 0.14 | 0.01 | 99 | 1015.8 |
| 20260505052903 | 48 | 40 | 0.0 | 1.0 | 0.01 | 0.14 | 0.01 | 99 | 1016.0 |
| 20260505052803 | 48 | 40 | 0.0 | 1.0 | 0.01 | 0.14 | 0.01 | 99 | 1015.9 |
| 20260505052724 | 48 | 40 | 0.0 | 1.0 | 0.01 | 0.14 | 0.01 | 99 | 1016.0 |
| 20260505052603 | 48 | 41 | 0.0 | 1.0 | 0.01 | 0.14 | 0.01 | 99 | 1015.8 |
| 20260505052503 | 48 | 41 | 0.0 | 1.0 | 0.01 | 0.14 | 0.01 | 99 | 1015.9 |
| 20260505052403 | 48 | 43 | 0.0 | 1.0 | 0.01 | 0.14 | 0.01 | 99 | 1015.8 |
| 20260505052304 | 48 | 43 | 0.0 | 1.0 | 0.01 | 0.14 | 0.01 | 99 | 1015.8 |
| 20260505052203 | 48 | 43 | 0.0 | 1.0 | 0.01 | 0.14 | 0.01 | 99 | 1016.0 |
| 20260505052103 | 48 | 43 | 0.0 | 1.0 | 0.01 | 0.14 | 0.01 | 99 | 1015.9 |
| 20260505052004 | 48 | 45 | 1.0 | 1.0 | 0.01 | 0.14 | 0.01 | 99 | 1015.9 |
| 20260505051903 | 48 | 45 | 1.0 | 1.0 | 0.00 | 0.13 | 0.00 | 99 | 1015.9 |
| 20260505051803 | 48 | 46 | 1.0 | 1.0 | 0.00 | 0.13 | 0.00 | 99 | 1015.9 |
| 20260505051724 | 48 | 46 | 1.0 | 1.0 | 0.00 | 0.13 | 0.00 | 99 | 1016.0 |
| 20260505051624 | 48 | 47 | 1.0 | 1.0 | 0.00 | 0.13 | 0.00 | 99 | 1015.8 |
| 20260505051503 | 48 | 46 | 1.0 | 1.0 | 0.00 | 0.13 | 0.00 | 99 | 1015.9 |
| 20260505051424 | 48 | 46 | 1.0 | 1.0 | 0.00 | 0.13 | 0.00 | 99 | 1015.9 |
| 20260505051303 | 48 | 45 | 1.0 | 2.0 | 0.00 | 0.13 | 0.00 | 99 | 1016.0 |
| 20260505051203 | 48 | 45 | 1.0 | 2.0 | 0.00 | 0.13 | 0.00 | 99 | 1016.0 |
| 20260505051124 | 48 | 46 | 1.0 | 2.0 | 0.00 | 0.13 | 0.00 | 99 | 1015.9 |
| 20260505051003 | 48 | 45 | 1.0 | 2.0 | 0.00 | 0.13 | 0.00 | 99 | 1016.0 |
| 20260505050924 | 48 | 45 | 1.0 | 2.0 | 0.00 | 0.13 | 0.00 | 99 | 1015.9 |
| 20260505050803 | 48 | 46 | 1.0 | 2.0 | 0.00 | 0.13 | 0.00 | 99 | 1015.9 |
| 20260505050703 | 48 | 49 | 1.0 | 3.0 | 0.00 | 0.13 | 0.00 | 99 | 1015.9 |
| 20260505050603 | 48 | 50 | 1.0 | 3.0 | 0.00 | 0.13 | 0.00 | 99 | 1015.9 |
| 20260505050503 | 48 | 50 | 2.0 | 3.0 | 0.00 | 0.13 | 0.00 | 99 | 1015.7 |
| 20260505050403 | 48 | 50 | 2.0 | 3.0 | 0.00 | 0.13 | 0.00 | 99 | 1015.8 |
| 20260505050303 | 48 | 51 | 2.0 | 3.0 | 0.00 | 0.13 | 0.00 | 99 | 1015.8 |
| 20260505050224 | 48 | 51 | 2.0 | 3.0 | 0.00 | 0.13 | 0.00 | 99 | 1015.8 |
| 20260505041703 | 47 | 46 | 1.0 | 2.0 | 0.00 | 0.13 | 0.00 | 99 | 1015.8 |
| 20260505041624 | 47 | 46 | 1.0 | 2.0 | 0.00 | 0.13 | 0.00 | 99 | 1015.8 |
| 20260505041503 | 47 | 47 | 1.0 | 2.0 | 0.00 | 0.13 | 0.00 | 99 | 1015.8 |
| 20260505041403 | 47 | 47 | 1.0 | 2.0 | 0.00 | 0.13 | 0.00 | 99 | 1015.9 |
| 20260505041324 | 47 | 48 | 1.0 | 2.0 | 0.00 | 0.13 | 0.00 | 99 | 1015.8 |
| 20260505041203 | 47 | 46 | 1.0 | 2.0 | 0.00 | 0.13 | 0.00 | 99 | 1015.9 |
| 20260505041103 | 47 | 47 | 1.0 | 2.0 | 0.00 | 0.13 | 0.00 | 99 | 1015.9 |
| 20260505041003 | 47 | 46 | 1.0 | 2.0 | 0.00 | 0.13 | 0.00 | 99 | 1015.9 |
| 20260505040924 | 47 | 45 | 0.0 | 2.0 | 0.00 | 0.13 | 0.00 | 99 | 1015.7 |
| 20260505040803 | 47 | 46 | 0.0 | 2.0 | 0.00 | 0.13 | 0.00 | 99 | 1015.8 |
| 20260505040703 | 47 | 49 | 0.0 | 2.0 | 0.00 | 0.13 | 0.00 | 99 | 1015.9 |
| 20260505040603 | 47 | 49 | 0.0 | 2.0 | 0.00 | 0.13 | 0.00 | 99 | 1015.9 |
| 20260505040524 | 47 | 49 | 0.0 | 2.0 | 0.00 | 0.13 | 0.00 | 99 | 1016.0 |
| 20260505040424 | 47 | 48 | 0.0 | 2.0 | 0.00 | 0.13 | 0.00 | 99 | 1016.0 |
| 20260505040303 | 47 | 48 | 0.0 | 2.0 | 0.00 | 0.13 | 0.00 | 99 | 1016.0 |
| 20260505040203 | 47 | 49 | 0.0 | 2.0 | 0.00 | 0.13 | 0.00 | 99 | 1016.0 |
| 20260505040003 | 47 | 49 | 0.0 | 2.0 | 0.00 | 0.13 | 0.00 | 99 | 1016.1 |
| 20260505035903 | 47 | 51 | 0.0 | 2.0 | 0.00 | 0.13 | 0.00 | 99 | 1016.0 |
| 20260505035803 | 47 | 49 | 0.0 | 2.0 | 0.00 | 0.13 | 0.00 | 99 | 1016.0 |
| 20260505035703 | 47 | 38 | 0.0 | 1.0 | 0.00 | 0.13 | 0.00 | 99 | 1016.2 |
| 20260505035603 | 47 | 38 | 0.0 | 1.0 | 0.00 | 0.13 | 0.00 | 99 | 1015.9 |
| 20260505035503 | 47 | 40 | 0.0 | 1.0 | 0.00 | 0.13 | 0.00 | 99 | 1016.1 |
| 20260505035403 | 47 | 42 | 0.0 | 1.0 | 0.00 | 0.13 | 0.00 | 99 | 1016.1 |
| 20260505035324 | 47 | 42 | 0.0 | 1.0 | 0.00 | 0.13 | 0.00 | 99 | 1016.1 |
| 20260505035224 | 47 | 40 | 0.0 | 1.0 | 0.00 | 0.13 | 0.00 | 99 | 1016.1 |
| 20260505035103 | 47 | 40 | 0.0 | 2.0 | 0.00 | 0.13 | 0.00 | 99 | 1016.1 |
| 20260505035024 | 47 | 40 | 0.0 | 2.0 | 0.00 | 0.13 | 0.00 | 99 | 1016.0 |
| 20260505034924 | 47 | 40 | 0.0 | 2.0 | 0.00 | 0.13 | 0.00 | 99 | 1016.2 |
| 20260505034803 | 47 | 40 | 0.0 | 2.0 | 0.00 | 0.13 | 0.00 | 99 | 1016.2 |
| 20260505034703 | 47 | 40 | 0.0 | 2.0 | 0.00 | 0.13 | 0.00 | 99 | 1016.3 |
| 20260505034603 | 47 | 40 | 1.0 | 2.0 | 0.00 | 0.13 | 0.00 | 99 | 1016.1 |
| 20260505034503 | 47 | 40 | 1.0 | 2.0 | 0.00 | 0.13 | 0.00 | 99 | 1016.1 |
| 20260505034403 | 47 | 41 | 1.0 | 2.0 | 0.00 | 0.13 | 0.00 | 99 | 1016.1 |
| 20260505034303 | 47 | 41 | 1.0 | 2.0 | 0.00 | 0.13 | 0.00 | 99 | 1016.0 |
| 20260505034203 | 47 | 41 | 1.0 | 2.0 | 0.00 | 0.13 | 0.00 | 99 | 1016.0 |
| 20260505034103 | 47 | 41 | 1.0 | 2.0 | 0.00 | 0.13 | 0.00 | 99 | 1016.0 |
| 20260505034003 | 47 | 41 | 1.0 | 2.0 | 0.00 | 0.13 | 0.00 | 99 | 1016.1 |
| 20260505033903 | 47 | 41 | 1.0 | 2.0 | 0.00 | 0.13 | 0.00 | 99 | 1016.2 |
| 20260505033803 | 47 | 41 | 1.0 | 2.0 | 0.00 | 0.13 | 0.00 | 99 | 1016.0 |
| 20260505033703 | 47 | 40 | 1.0 | 2.0 | 0.00 | 0.13 | 0.00 | 99 | 1016.1 |
| 20260505033603 | 47 | 40 | 1.0 | 1.0 | 0.00 | 0.13 | 0.00 | 99 | 1016.0 |
| 20260505033503 | 47 | 40 | 1.0 | 1.0 | 0.00 | 0.13 | 0.00 | 99 | 1016.0 |
| 20260505033403 | 47 | 39 | 1.0 | 1.0 | 0.00 | 0.13 | 0.00 | 99 | 1015.9 |
| 20260505033303 | 47 | 39 | 1.0 | 1.0 | 0.00 | 0.13 | 0.00 | 99 | 1016.1 |
| 20260505033203 | 47 | 39 | 1.0 | 1.0 | 0.00 | 0.13 | 0.00 | 99 | 1016.1 |
| 20260505033103 | 47 | 40 | 0.0 | 1.0 | 0.00 | 0.13 | 0.00 | 99 | 1016.0 |
| 20260505033003 | 47 | 40 | 0.0 | 1.0 | 0.00 | 0.13 | 0.00 | 99 | 1016.1 |
| 20260505032903 | 47 | 42 | 0.0 | 1.0 | 0.00 | 0.13 | 0.00 | 99 | 1016.0 |
| 20260505032803 | 47 | 42 | 0.0 | 1.0 | 0.00 | 0.13 | 0.00 | 99 | 1015.9 |
| 20260505032703 | 47 | 43 | 0.0 | 1.0 | 0.00 | 0.13 | 0.00 | 99 | 1016.2 |
| 20260505032603 | 47 | 45 | 1.0 | 2.0 | 0.00 | 0.13 | 0.00 | 99 | 1016.1 |
| 20260505032525 | 47 | 45 | 1.0 | 2.0 | 0.00 | 0.13 | 0.00 | 99 | 1016.1 |
| 20260505032403 | 47 | 46 | 1.0 | 2.0 | 0.00 | 0.13 | 0.00 | 99 | 1016.1 |
| 20260505032325 | 47 | 45 | 1.0 | 2.0 | 0.00 | 0.13 | 0.00 | 99 | 1016.0 |
| 20260505032203 | 47 | 45 | 1.0 | 2.0 | 0.00 | 0.13 | 0.00 | 99 | 1015.9 |
| 20260505032103 | 47 | 45 | 1.0 | 2.0 | 0.00 | 0.13 | 0.00 | 99 | 1016.1 |
| 20260505032003 | 47 | 45 | 1.0 | 2.0 | 0.00 | 0.13 | 0.00 | 99 | 1016.1 |
| 20260505031903 | 47 | 44 | 1.0 | 2.0 | 0.00 | 0.13 | 0.00 | 99 | 1016.0 |
| 20260505031803 | 47 | 42 | 1.0 | 2.0 | 0.00 | 0.13 | 0.00 | 99 | 1016.0 |
| 20260505031724 | 47 | 42 | 1.0 | 2.0 | 0.00 | 0.13 | 0.00 | 99 | 1016.1 |
| 20260505031603 | 47 | 42 | 1.0 | 2.0 | 0.00 | 0.13 | 0.00 | 99 | 1016.2 |
| 20260505031504 | 47 | 40 | 1.0 | 2.0 | 0.00 | 0.13 | 0.00 | 99 | 1016.1 |
| 20260505031403 | 47 | 41 | 1.0 | 2.0 | 0.00 | 0.13 | 0.00 | 99 | 1016.3 |
| 20260505031324 | 47 | 40 | 1.0 | 2.0 | 0.00 | 0.13 | 0.00 | 99 | 1016.1 |
| 20260505031203 | 47 | 43 | 1.0 | 2.0 | 0.00 | 0.13 | 0.00 | 99 | 1016.2 |
| 20260505031103 | 47 | 45 | 1.0 | 2.0 | 0.00 | 0.13 | 0.00 | 99 | 1016.1 |
| 20260505031003 | 47 | 46 | 1.0 | 2.0 | 0.00 | 0.13 | 0.00 | 99 | 1016.2 |
| 20260505030903 | 47 | 48 | 1.0 | 2.0 | 0.00 | 0.13 | 0.00 | 99 | 1016.3 |
| 20260505030803 | 47 | 52 | 1.0 | 2.0 | 0.00 | 0.13 | 0.00 | 99 | 1016.3 |
| 20260505030724 | 47 | 52 | 1.0 | 2.0 | 0.00 | 0.13 | 0.00 | 99 | 1016.3 |
| 20260505030603 | 47 | 53 | 1.0 | 2.0 | 0.00 | 0.13 | 0.00 | 99 | 1016.2 |
| 20260505030503 | 47 | 54 | 1.0 | 2.0 | 0.00 | 0.13 | 0.00 | 99 | 1016.2 |
| 20260505030403 | 47 | 54 | 1.0 | 2.0 | 0.00 | 0.13 | 0.00 | 99 | 1016.2 |
| 20260505030324 | 47 | 53 | 1.0 | 2.0 | 0.00 | 0.13 | 0.00 | 99 | 1016.2 |
| 20260505030203 | 47 | 55 | 1.0 | 2.0 | 0.00 | 0.13 | 0.00 | 99 | 1016.1 |
| 20260505030103 | 47 | 53 | 1.0 | 2.0 | 0.00 | 0.13 | 0.00 | 99 | 1016.1 |
| 20260505030003 | 47 | 53 | 1.0 | 2.0 | 0.00 | 0.13 | 0.00 | 99 | 1016.2 |
| 20260505025903 | 47 | 52 | 1.0 | 2.0 | 0.00 | 0.13 | 0.00 | 99 | 1016.2 |
| 20260505025803 | 47 | 53 | 1.0 | 2.0 | 0.00 | 0.13 | 0.00 | 99 | 1016.1 |
| 20260505025703 | 47 | 48 | 0.0 | 2.0 | 0.00 | 0.13 | 0.00 | 99 | 1016.2 |
| 20260505025624 | 47 | 50 | 0.0 | 2.0 | 0.00 | 0.13 | 0.00 | 99 | 1016.2 |
| 20260505025503 | 47 | 45 | 0.0 | 1.0 | 0.00 | 0.13 | 0.00 | 99 | 1016.0 |
| 20260505025424 | 47 | 45 | 0.0 | 1.0 | 0.00 | 0.13 | 0.00 | 99 | 1016.0 |
| 20260505025305 | 47 | 44 | 0.0 | 1.0 | 0.00 | 0.13 | 0.00 | 99 | 1016.2 |
| 20260505025203 | 47 | 44 | 0.0 | 1.0 | 0.00 | 0.13 | 0.00 | 99 | 1016.2 |
| 20260505025103 | 47 | 42 | 0.0 | 1.0 | 0.00 | 0.13 | 0.00 | 99 | 1016.3 |
| 20260505025003 | 47 | 45 | 1.0 | 2.0 | 0.00 | 0.13 | 0.00 | 99 | 1016.3 |
| 20260505024903 | 47 | 44 | 1.0 | 2.0 | 0.00 | 0.13 | 0.00 | 99 | 1016.2 |
| 20260505024803 | 47 | 44 | 1.0 | 2.0 | 0.00 | 0.13 | 0.00 | 99 | 1016.2 |
| 20260505024703 | 47 | 44 | 1.0 | 2.0 | 0.00 | 0.13 | 0.00 | 99 | 1016.3 |
| 20260505024603 | 47 | 43 | 1.0 | 2.0 | 0.00 | 0.13 | 0.00 | 99 | 1016.3 |
| 20260505024503 | 47 | 43 | 1.0 | 2.0 | 0.00 | 0.13 | 0.00 | 99 | 1016.2 |
| 20260505024403 | 47 | 43 | 1.0 | 2.0 | 0.00 | 0.13 | 0.00 | 99 | 1016.4 |
| 20260505024324 | 47 | 45 | 1.0 | 2.0 | 0.00 | 0.13 | 0.00 | 99 | 1016.6 |
| 20260505024203 | 47 | 45 | 1.0 | 2.0 | 0.00 | 0.13 | 0.00 | 99 | 1016.3 |
| 20260505024103 | 47 | 45 | 1.0 | 2.0 | 0.00 | 0.13 | 0.00 | 99 | 1016.5 |
| 20260505024003 | 47 | 45 | 1.0 | 2.0 | 0.00 | 0.13 | 0.00 | 99 | 1016.3 |
| 20260505023903 | 47 | 43 | 1.0 | 2.0 | 0.00 | 0.13 | 0.00 | 99 | 1016.3 |
| 20260505023824 | 47 | 43 | 1.0 | 2.0 | 0.00 | 0.13 | 0.00 | 99 | 1016.3 |
| 20260505023703 | 47 | 43 | 1.0 | 2.0 | 0.00 | 0.13 | 0.00 | 99 | 1016.4 |
| 20260505023603 | 47 | 44 | 1.0 | 2.0 | 0.00 | 0.13 | 0.00 | 99 | 1016.1 |
| 20260505023503 | 47 | 44 | 1.0 | 2.0 | 0.00 | 0.13 | 0.00 | 99 | 1016.1 |
| 20260505023403 | 47 | 56 | 1.0 | 3.0 | 0.00 | 0.13 | 0.00 | 99 | 1016.3 |
| 20260505023303 | 47 | 56 | 1.0 | 3.0 | 0.00 | 0.13 | 0.00 | 99 | 1016.4 |
| 20260505023224 | 47 | 60 | 1.0 | 3.0 | 0.00 | 0.13 | 0.00 | 99 | 1016.3 |